Wetterdaten: Donnerstag, 11.03.2021
Datum Zeit Temp. Aussen Temp. o. S. Temp +5cm Feuchte Auss Luftdruck Regen Sonnenschein Regendauer Solar Windben Empfang
11.03.2021 00:00 6,5 C 5,6 C 3,9 C 92 % 1006,7 hPa 0,0 l/m 0 min 0 min 0 W/m 16,1 km/h (3 Bft) 95,74 %
11.03.2021 00:02 6,5 C 5,6 C 3,9 C 92 % 1006,6 hPa 0,0 l/m 0 min 0 min 0 W/m 19,3 km/h (3 Bft) 94,74 %
11.03.2021 00:04 6,5 C 5,6 C 3,9 C 92 % 1006,5 hPa 0,0 l/m 0 min 0 min 0 W/m 16,1 km/h (3 Bft) 97,87 %
11.03.2021 00:08 6,5 C 5,6 C 3,9 C 92 % 1006,5 hPa 0,0 l/m 0 min 0 min 0 W/m 22,5 km/h (4 Bft) 96,81 %
11.03.2021 00:10 6,4 C 5,6 C 3,9 C 92 % 1006,4 hPa 0,0 l/m 0 min 0 min 0 W/m 16,1 km/h (3 Bft) 97,87 %
11.03.2021 00:12 6,4 C 5,6 C 3,9 C 92 % 1006,4 hPa 0,0 l/m 0 min 0 min 0 W/m 19,3 km/h (3 Bft) 95,74 %
11.03.2021 00:14 6,4 C 5,6 C 3,9 C 92 % 1006,2 hPa 0,0 l/m 0 min 0 min 0 W/m 19,3 km/h (3 Bft) 95,74 %
11.03.2021 00:16 6,4 C 5,6 C 3,9 C 92 % 1006,2 hPa 0,0 l/m 0 min 0 min 0 W/m 22,5 km/h (4 Bft) 44,44 %
11.03.2021 00:18 6,4 C 5,6 C 3,9 C 93 % 1006,2 hPa 0,0 l/m 0 min 0 min 0 W/m 16,1 km/h (3 Bft) 97,87 %
11.03.2021 00:20 6,4 C 5,6 C 3,9 C 93 % 1006,2 hPa 0,0 l/m 0 min 0 min 0 W/m 16,1 km/h (3 Bft) 97,87 %
11.03.2021 00:22 6,4 C 5,6 C 3,9 C 93 % 1006,1 hPa 0,0 l/m 0 min 0 min 0 W/m 19,3 km/h (3 Bft) 97,87 %
11.03.2021 00:24 6,4 C 5,6 C 3,9 C 93 % 1006,0 hPa 0,0 l/m 0 min 0 min 0 W/m 12,9 km/h (3 Bft) 97,87 %
11.03.2021 00:26 6,4 C 5,6 C 3,9 C 93 % 1006,0 hPa 0,0 l/m 0 min 0 min 0 W/m 22,5 km/h (4 Bft) 97,83 %
11.03.2021 00:28 6,4 C 5,6 C 3,9 C 93 % 1005,9 hPa 0,0 l/m 0 min 0 min 0 W/m 22,5 km/h (4 Bft) 95,74 %
11.03.2021 00:30 6,4 C 5,6 C 3,9 C 93 % 1005,8 hPa 0,0 l/m 0 min 0 min 0 W/m 16,1 km/h (3 Bft) 97,87 %
11.03.2021 00:32 6,4 C 5,6 C 3,9 C 93 % 1005,8 hPa 0,0 l/m 0 min 0 min 0 W/m 16,1 km/h (3 Bft) 95,74 %
11.03.2021 00:34 6,4 C 5,6 C 3,9 C 93 % 1005,7 hPa 0,0 l/m 0 min 0 min 0 W/m 16,1 km/h (3 Bft) 97,87 %
11.03.2021 00:36 6,4 C 5,6 C 3,9 C 93 % 1005,6 hPa 0,0 l/m 0 min 0 min 0 W/m 19,3 km/h (3 Bft) 97,87 %
11.03.2021 00:38 6,4 C 6,1 C 3,9 C 93 % 1005,5 hPa 0,0 l/m 0 min 0 min 0 W/m 16,1 km/h (3 Bft) 97,83 %
11.03.2021 00:40 6,4 C 6,1 C 3,9 C 93 % 1005,5 hPa 0,0 l/m 0 min 0 min 0 W/m 19,3 km/h (3 Bft) 97,87 %
11.03.2021 00:42 6,4 C 5,6 C 3,9 C 93 % 1005,4 hPa 0,0 l/m 0 min 0 min 0 W/m 12,9 km/h (3 Bft) 95,74 %
11.03.2021 00:44 6,4 C 6,1 C 3,9 C 93 % 1005,4 hPa 0,0 l/m 0 min 0 min 0 W/m 19,3 km/h (3 Bft) 93,62 %
11.03.2021 00:46 6,4 C 6,1 C 3,9 C 93 % 1005,4 hPa 0,0 l/m 0 min 0 min 0 W/m 12,9 km/h (3 Bft) 95,74 %
11.03.2021 00:48 6,4 C 6,1 C 3,9 C 93 % 1005,3 hPa 0,0 l/m 0 min 0 min 0 W/m 16,1 km/h (3 Bft) 91,49 %
11.03.2021 00:50 6,4 C 6,1 C 3,9 C 93 % 1005,3 hPa 0,0 l/m 0 min 0 min 0 W/m 19,3 km/h (3 Bft) 95,65 %
11.03.2021 00:52 6,4 C 6,1 C 3,9 C 93 % 1005,3 hPa 0,0 l/m 0 min 0 min 0 W/m 16,1 km/h (3 Bft) 95,74 %
11.03.2021 00:54 6,4 C 6,1 C 3,9 C 93 % 1005,3 hPa 0,0 l/m 0 min 0 min 0 W/m 16,1 km/h (3 Bft) 95,74 %
11.03.2021 00:56 6,4 C 6,1 C 3,9 C 93 % 1005,3 hPa 0,0 l/m 0 min 0 min 0 W/m 22,5 km/h (4 Bft) 95,74 %
11.03.2021 00:58 6,4 C 6,1 C 3,9 C 93 % 1005,2 hPa 0,0 l/m 0 min 0 min 0 W/m 19,3 km/h (3 Bft) 95,74 %
11.03.2021 01:00 6,4 C 6,1 C 3,9 C 93 % 1005,2 hPa 0,0 l/m 0 min 0 min 0 W/m 19,3 km/h (3 Bft) 95,74 %
11.03.2021 01:02 6,4 C 6,1 C 3,9 C 93 % 1005,2 hPa 0,0 l/m 0 min 0 min 0 W/m 12,9 km/h (3 Bft) 95,65 %
11.03.2021 01:04 6,5 C 6,1 C 3,9 C 93 % 1005,2 hPa 0,0 l/m 0 min 0 min 0 W/m 6,4 km/h (2 Bft) 95,74 %
11.03.2021 01:06 6,5 C 6,1 C 3,9 C 93 % 1005,1 hPa 0,0 l/m 0 min 0 min 0 W/m 16,1 km/h (3 Bft) 95,74 %
11.03.2021 01:08 6,5 C 6,1 C 3,9 C 93 % 1005,1 hPa 0,0 l/m 0 min 0 min 0 W/m 12,9 km/h (3 Bft) 93,62 %
11.03.2021 01:10 6,5 C 6,1 C 3,9 C 93 % 1005,1 hPa 0,0 l/m 0 min 0 min 0 W/m 12,9 km/h (3 Bft) 95,74 %
11.03.2021 01:12 6,5 C 6,1 C 3,9 C 93 % 1005,0 hPa 0,0 l/m 0 min 0 min 0 W/m 22,5 km/h (4 Bft) 95,74 %
11.03.2021 01:14 6,5 C 6,1 C 3,9 C 93 % 1005,0 hPa 0,0 l/m 0 min 0 min 0 W/m 25,7 km/h (4 Bft) 97,83 %
11.03.2021 01:16 6,6 C 6,1 C 4,5 C 92 % 1005,0 hPa 0,0 l/m 0 min 0 min 0 W/m 12,9 km/h (3 Bft) 93,62 %
11.03.2021 01:18 6,6 C 6,1 C 4,5 C 92 % 1005,1 hPa 0,0 l/m 0 min 0 min 0 W/m 16,1 km/h (3 Bft) 97,87 %
11.03.2021 01:20 6,6 C 6,1 C 4,5 C 92 % 1005,0 hPa 0,0 l/m 0 min 0 min 0 W/m 29,0 km/h (5 Bft) 95,74 %
11.03.2021 01:22 6,7 C 6,1 C 4,5 C 92 % 1004,9 hPa 0,0 l/m 0 min 0 min 0 W/m 22,5 km/h (4 Bft) 91,49 %
11.03.2021 01:24 6,8 C 6,1 C 4,5 C 92 % 1004,9 hPa 0,0 l/m 0 min 0 min 0 W/m 41,8 km/h (6 Bft) 93,62 %
11.03.2021 01:26 6,8 C 6,1 C 4,5 C 92 % 1004,9 hPa 0,0 l/m 0 min 0 min 0 W/m 12,9 km/h (3 Bft) 93,48 %
11.03.2021 01:28 6,8 C 6,1 C 4,5 C 92 % 1004,8 hPa 0,0 l/m 0 min 0 min 0 W/m 19,3 km/h (3 Bft) 97,87 %
11.03.2021 01:30 6,8 C 6,1 C 4,5 C 92 % 1004,9 hPa 0,0 l/m 0 min 0 min 0 W/m 19,3 km/h (3 Bft) 97,87 %
11.03.2021 01:32 6,9 C 6,1 C 4,5 C 92 % 1004,8 hPa 0,0 l/m 0 min 0 min 0 W/m 16,1 km/h (3 Bft) 100,00 %
11.03.2021 01:34 6,9 C 6,1 C 4,5 C 92 % 1004,9 hPa 0,0 l/m 0 min 0 min 0 W/m 29,0 km/h (5 Bft) 97,87 %
11.03.2021 01:36 6,9 C 6,1 C 4,5 C 91 % 1004,8 hPa 0,0 l/m 0 min 0 min 0 W/m 22,5 km/h (4 Bft) 95,74 %
11.03.2021 01:38 6,9 C 6,1 C 4,5 C 91 % 1004,7 hPa 0,0 l/m 0 min 0 min 0 W/m 19,3 km/h (3 Bft) 97,87 %
11.03.2021 01:40 6,9 C 6,1 C 4,5 C 91 % 1004,8 hPa 0,0 l/m 0 min 0 min 0 W/m 22,5 km/h (4 Bft) 95,65 %
11.03.2021 01:42 6,9 C 6,7 C 4,5 C 91 % 1004,7 hPa 0,0 l/m 0 min 0 min 0 W/m 19,3 km/h (3 Bft) 100,00 %
11.03.2021 01:44 6,9 C 6,7 C 4,5 C 91 % 1004,7 hPa 0,0 l/m 0 min 0 min 0 W/m 19,3 km/h (3 Bft) 95,74 %
11.03.2021 01:46 6,9 C 6,7 C 4,5 C 91 % 1004,7 hPa 0,0 l/m 0 min 0 min 0 W/m 9,7 km/h (2 Bft) 97,87 %
11.03.2021 01:48 6,9 C 6,7 C 4,5 C 91 % 1004,6 hPa 0,0 l/m 0 min 0 min 0 W/m 19,3 km/h (3 Bft) 97,87 %
11.03.2021 01:50 7,0 C 6,7 C 4,5 C 91 % 1004,7 hPa 0,0 l/m 0 min 0 min 0 W/m 12,9 km/h (3 Bft) 97,83 %
11.03.2021 01:52 7,0 C 6,7 C 4,5 C 91 % 1004,6 hPa 0,0 l/m 0 min 0 min 0 W/m 22,5 km/h (4 Bft) 97,87 %
11.03.2021 01:54 7,0 C 6,7 C 4,5 C 91 % 1004,5 hPa 0,0 l/m 0 min 0 min 0 W/m 35,4 km/h (5 Bft) 95,74 %
11.03.2021 01:56 7,0 C 6,7 C 4,5 C 91 % 1004,5 hPa 0,0 l/m 0 min 0 min 0 W/m 22,5 km/h (4 Bft) 97,87 %
11.03.2021 01:58 7,1 C 6,7 C 4,5 C 91 % 1004,5 hPa 0,0 l/m 0 min 0 min 0 W/m 22,5 km/h (4 Bft) 95,74 %
11.03.2021 02:00 7,1 C 6,7 C 4,5 C 90 % 1004,5 hPa 0,0 l/m 0 min 0 min 0 W/m 22,5 km/h (4 Bft) 97,87 %
11.03.2021 02:02 7,2 C 6,7 C 4,5 C 90 % 1004,4 hPa 0,0 l/m 0 min 0 min 0 W/m 16,1 km/h (3 Bft) 97,83 %
11.03.2021 02:04 7,2 C 6,7 C 4,5 C 90 % 1004,4 hPa 0,0 l/m 0 min 0 min 0 W/m 22,5 km/h (4 Bft) 97,87 %
11.03.2021 02:06 7,3 C 6,7 C 4,5 C 90 % 1004,3 hPa 0,0 l/m 0 min 0 min 0 W/m 19,3 km/h (3 Bft) 97,87 %
11.03.2021 02:08 7,3 C 6,7 C 4,5 C 89 % 1004,2 hPa 0,0 l/m 0 min 0 min 0 W/m 16,1 km/h (3 Bft) 97,87 %
11.03.2021 02:10 7,3 C 6,7 C 4,5 C 89 % 1004,2 hPa 0,0 l/m 0 min 0 min 0 W/m 16,1 km/h (3 Bft) 97,87 %
11.03.2021 02:12 7,4 C 6,7 C 4,5 C 89 % 1004,1 hPa 0,0 l/m 0 min 0 min 0 W/m 22,5 km/h (4 Bft) 98,11 %
11.03.2021 02:14 7,4 C 6,7 C 4,5 C 89 % 1004,0 hPa 0,0 l/m 0 min 0 min 0 W/m 22,5 km/h (4 Bft) 100,00 %
11.03.2021 02:16 7,4 C 6,7 C 4,5 C 89 % 1003,9 hPa 0,0 l/m 0 min 0 min 0 W/m 22,5 km/h (4 Bft) 100,00 %
11.03.2021 02:18 7,4 C 6,7 C 4,5 C 89 % 1003,9 hPa 0,0 l/m 0 min 0 min 0 W/m 25,7 km/h (4 Bft) 100,00 %
11.03.2021 02:20 7,4 C 6,7 C 4,5 C 89 % 1003,8 hPa 0,0 l/m 0 min 0 min 0 W/m 12,9 km/h (3 Bft) 100,00 %
11.03.2021 02:22 7,4 C 6,7 C 4,5 C 89 % 1003,8 hPa 0,0 l/m 0 min 0 min 0 W/m 19,3 km/h (3 Bft) 100,00 %
11.03.2021 02:24 7,4 C 6,7 C 4,5 C 89 % 1003,8 hPa 0,0 l/m 0 min 0 min 0 W/m 32,2 km/h (5 Bft) 97,87 %
11.03.2021 02:26 7,4 C 6,7 C 4,5 C 89 % 1003,8 hPa 0,0 l/m 0 min 0 min 0 W/m 16,1 km/h (3 Bft) 100,00 %
11.03.2021 02:28 7,4 C 6,7 C 4,5 C 89 % 1003,7 hPa 0,0 l/m 0 min 0 min 0 W/m 32,2 km/h (5 Bft) 100,00 %
11.03.2021 02:30 7,4 C 6,7 C 4,5 C 89 % 1003,7 hPa 0,0 l/m 0 min 0 min 0 W/m 25,7 km/h (4 Bft) 100,00 %
11.03.2021 02:32 7,5 C 6,7 C 4,5 C 89 % 1003,7 hPa 0,0 l/m 0 min 0 min 0 W/m 29,0 km/h (5 Bft) 100,00 %
11.03.2021 02:34 7,5 C 6,7 C 4,5 C 89 % 1003,7 hPa 0,0 l/m 0 min 0 min 0 W/m 19,3 km/h (3 Bft) 100,00 %
11.03.2021 02:36 7,5 C 6,7 C 4,5 C 89 % 1003,7 hPa 0,0 l/m 0 min 0 min 0 W/m 29,0 km/h (5 Bft) 100,00 %
11.03.2021 02:38 7,5 C 6,7 C 4,5 C 89 % 1003,5 hPa 0,0 l/m 0 min 0 min 0 W/m 19,3 km/h (3 Bft) 100,00 %
11.03.2021 02:40 7,5 C 6,7 C 4,5 C 89 % 1003,6 hPa 0,0 l/m 0 min 0 min 0 W/m 32,2 km/h (5 Bft) 97,87 %
11.03.2021 02:42 7,5 C 6,7 C 4,5 C 89 % 1003,4 hPa 0,0 l/m 0 min 0 min 0 W/m 19,3 km/h (3 Bft) 97,87 %
11.03.2021 02:44 7,5 C 6,7 C 5,0 C 89 % 1003,4 hPa 0,0 l/m 0 min 0 min 0 W/m 22,5 km/h (4 Bft) 100,00 %
11.03.2021 02:46 7,5 C 7,2 C 5,0 C 89 % 1003,4 hPa 0,0 l/m 0 min 0 min 0 W/m 38,6 km/h (5 Bft) 95,65 %
11.03.2021 02:48 7,5 C 7,2 C 5,0 C 89 % 1003,3 hPa 0,0 l/m 0 min 0 min 0 W/m 32,2 km/h (5 Bft) 65,96 %
11.03.2021 02:50 7,6 C 7,2 C 5,0 C 89 % 1003,2 hPa 0,0 l/m 0 min 0 min 0 W/m 25,7 km/h (4 Bft) 88,64 %
11.03.2021 02:52 7,6 C 7,2 C 5,0 C 88 % 1003,1 hPa 0,0 l/m 0 min 0 min 0 W/m 25,7 km/h (4 Bft) 97,87 %
11.03.2021 02:54 7,6 C 7,2 C 5,0 C 88 % 1003,1 hPa 0,0 l/m 0 min 0 min 0 W/m 29,0 km/h (5 Bft) 100,00 %
11.03.2021 02:56 7,6 C 7,2 C 5,0 C 88 % 1003,0 hPa 0,0 l/m 0 min 0 min 0 W/m 29,0 km/h (5 Bft) 97,87 %
11.03.2021 02:58 7,6 C 7,2 C 5,0 C 88 % 1003,0 hPa 0,0 l/m 0 min 0 min 0 W/m 25,7 km/h (4 Bft) 100,00 %
11.03.2021 03:00 7,7 C 7,2 C 5,0 C 88 % 1003,0 hPa 0,0 l/m 0 min 0 min 0 W/m 41,8 km/h (6 Bft) 97,87 %
11.03.2021 03:02 7,7 C 7,2 C 5,0 C 88 % 1002,9 hPa 0,0 l/m 0 min 0 min 0 W/m 35,4 km/h (5 Bft) 97,87 %
11.03.2021 03:04 7,7 C 7,2 C 5,0 C 88 % 1002,9 hPa 0,0 l/m 0 min 0 min 0 W/m 25,7 km/h (4 Bft) 100,00 %
11.03.2021 03:06 7,7 C 7,2 C 5,0 C 88 % 1002,8 hPa 0,0 l/m 0 min 0 min 0 W/m 16,1 km/h (3 Bft) 100,00 %
11.03.2021 03:08 7,8 C 7,2 C 5,0 C 88 % 1002,7 hPa 0,0 l/m 0 min 0 min 0 W/m 19,3 km/h (3 Bft) 97,87 %
11.03.2021 03:10 7,8 C 7,2 C 5,0 C 88 % 1002,6 hPa 0,0 l/m 0 min 0 min 0 W/m 19,3 km/h (3 Bft) 97,83 %
11.03.2021 03:12 7,8 C 7,2 C 5,0 C 88 % 1002,7 hPa 0,0 l/m 0 min 0 min 0 W/m 29,0 km/h (5 Bft) 97,87 %
11.03.2021 03:14 7,8 C 7,2 C 5,0 C 88 % 1002,4 hPa 0,0 l/m 0 min 0 min 0 W/m 35,4 km/h (5 Bft) 97,87 %
11.03.2021 03:16 7,8 C 7,2 C 5,0 C 88 % 1002,5 hPa 0,0 l/m 0 min 0 min 0 W/m 22,5 km/h (4 Bft) 97,87 %
11.03.2021 03:18 7,9 C 7,2 C 5,0 C 88 % 1002,4 hPa 0,0 l/m 0 min 0 min 0 W/m 35,4 km/h (5 Bft) 97,87 %
11.03.2021 03:20 7,9 C 7,2 C 5,0 C 87 % 1002,3 hPa 0,0 l/m 0 min 0 min 0 W/m 29,0 km/h (5 Bft) 95,74 %
11.03.2021 03:22 7,9 C 7,2 C 5,0 C 87 % 1002,2 hPa 0,0 l/m 0 min 0 min 0 W/m 32,2 km/h (5 Bft) 97,83 %
11.03.2021 03:24 7,9 C 7,2 C 5,0 C 87 % 1002,1 hPa 0,0 l/m 0 min 0 min 0 W/m 12,9 km/h (3 Bft) 97,87 %
11.03.2021 03:26 7,9 C 7,2 C 5,0 C 87 % 1002,2 hPa 0,0 l/m 0 min 0 min 0 W/m 29,0 km/h (5 Bft) 97,87 %
11.03.2021 03:28 7,9 C 7,2 C 5,0 C 87 % 1002,1 hPa 0,0 l/m 0 min 0 min 0 W/m 29,0 km/h (5 Bft) 95,74 %
11.03.2021 03:30 7,9 C 7,2 C 5,0 C 87 % 1002,2 hPa 0,0 l/m 0 min 0 min 0 W/m 35,4 km/h (5 Bft) 97,87 %
11.03.2021 03:32 8,0 C 7,2 C 5,0 C 87 % 1002,0 hPa 0,0 l/m 0 min 0 min 0 W/m 38,6 km/h (5 Bft) 95,74 %
11.03.2021 03:34 8,0 C 7,2 C 5,0 C 87 % 1002,0 hPa 0,0 l/m 0 min 0 min 0 W/m 38,6 km/h (5 Bft) 97,83 %
11.03.2021 03:36 8,0 C 7,2 C 5,0 C 87 % 1001,9 hPa 0,0 l/m 0 min 0 min 0 W/m 22,5 km/h (4 Bft) 97,87 %
11.03.2021 03:38 8,0 C 7,2 C 5,0 C 87 % 1001,8 hPa 0,0 l/m 0 min 0 min 0 W/m 19,3 km/h (3 Bft) 97,87 %
11.03.2021 03:40 8,0 C 7,2 C 5,0 C 87 % 1001,8 hPa 0,0 l/m 0 min 0 min 0 W/m 19,3 km/h (3 Bft) 97,87 %
11.03.2021 03:42 8,0 C 7,2 C 5,0 C 87 % 1001,8 hPa 0,0 l/m 0 min 0 min 0 W/m 22,5 km/h (4 Bft) 97,87 %
11.03.2021 03:44 8,0 C 7,2 C 5,0 C 87 % 1001,7 hPa 0,0 l/m 0 min 0 min 0 W/m 25,7 km/h (4 Bft) 97,87 %
11.03.2021 03:46 8,0 C 7,2 C 5,0 C 87 % 1001,7 hPa 0,0 l/m 0 min 0 min 0 W/m 32,2 km/h (5 Bft) 97,83 %
11.03.2021 03:48 8,0 C 7,2 C 5,0 C 87 % 1001,6 hPa 0,0 l/m 0 min 0 min 0 W/m 16,1 km/h (3 Bft) 97,87 %
11.03.2021 03:50 8,0 C 7,8 C 5,0 C 87 % 1001,6 hPa 0,0 l/m 0 min 0 min 0 W/m 35,4 km/h (5 Bft) 97,87 %
11.03.2021 03:52 8,1 C 7,2 C 5,0 C 87 % 1001,6 hPa 0,0 l/m 0 min 0 min 0 W/m 22,5 km/h (4 Bft) 97,87 %
11.03.2021 03:54 8,1 C 7,8 C 5,0 C 87 % 1001,5 hPa 0,0 l/m 0 min 0 min 0 W/m 35,4 km/h (5 Bft) 100,00 %
11.03.2021 03:56 8,1 C 7,2 C 5,0 C 87 % 1001,5 hPa 0,0 l/m 0 min 0 min 0 W/m 29,0 km/h (5 Bft) 100,00 %
11.03.2021 03:58 8,1 C 7,8 C 5,0 C 87 % 1001,5 hPa 0,0 l/m 0 min 0 min 0 W/m 29,0 km/h (5 Bft) 100,00 %
11.03.2021 04:00 8,1 C 7,8 C 5,0 C 87 % 1001,4 hPa 0,0 l/m 0 min 0 min 0 W/m 32,2 km/h (5 Bft) 100,00 %
11.03.2021 04:02 8,1 C 7,8 C 5,0 C 87 % 1001,4 hPa 0,0 l/m 0 min 0 min 0 W/m 19,3 km/h (3 Bft) 100,00 %
11.03.2021 04:04 8,1 C 7,8 C 5,0 C 87 % 1001,2 hPa 0,0 l/m 0 min 0 min 0 W/m 25,7 km/h (4 Bft) 100,00 %
11.03.2021 04:06 8,1 C 7,2 C 5,0 C 87 % 1001,1 hPa 0,0 l/m 0 min 0 min 0 W/m 16,1 km/h (3 Bft) 100,00 %
11.03.2021 04:08 8,1 C 7,2 C 5,0 C 87 % 1001,1 hPa 0,0 l/m 0 min 0 min 0 W/m 35,4 km/h (5 Bft) 100,00 %
11.03.2021 04:10 8,1 C 7,2 C 5,0 C 87 % 1001,1 hPa 0,0 l/m 0 min 0 min 0 W/m 45,1 km/h (6 Bft) 100,00 %
11.03.2021 04:12 8,1 C 7,2 C 5,0 C 87 % 1001,0 hPa 0,0 l/m 0 min 0 min 0 W/m 25,7 km/h (4 Bft) 100,00 %
11.03.2021 04:14 8,1 C 7,2 C 5,0 C 87 % 1001,0 hPa 0,0 l/m 0 min 0 min 0 W/m 41,8 km/h (6 Bft) 100,00 %
11.03.2021 04:16 8,1 C 7,2 C 5,0 C 87 % 1001,0 hPa 0,0 l/m 0 min 0 min 0 W/m 48,3 km/h (6 Bft) 95,74 %
11.03.2021 04:18 8,1 C 7,2 C 5,0 C 87 % 1001,0 hPa 0,0 l/m 0 min 0 min 0 W/m 35,4 km/h (5 Bft) 97,87 %
11.03.2021 04:20 8,1 C 7,2 C 5,0 C 87 % 1001,2 hPa 0,0 l/m 0 min 0 min 0 W/m 38,6 km/h (5 Bft) 97,87 %
11.03.2021 04:22 8,1 C 7,2 C 5,0 C 87 % 1001,3 hPa 0,0 l/m 0 min 0 min 0 W/m 19,3 km/h (3 Bft) 97,87 %
11.03.2021 04:24 8,1 C 7,2 C 5,0 C 88 % 1001,2 hPa 0,0 l/m 0 min 0 min 0 W/m 32,2 km/h (5 Bft) 95,65 %
11.03.2021 04:26 8,1 C 7,2 C 5,0 C 88 % 1001,2 hPa 0,0 l/m 0 min 0 min 0 W/m 12,9 km/h (3 Bft) 97,87 %
11.03.2021 04:28 8,0 C 7,2 C 5,0 C 88 % 1001,0 hPa 0,0 l/m 0 min 0 min 0 W/m 32,2 km/h (5 Bft) 97,87 %
11.03.2021 04:30 8,0 C 7,2 C 5,0 C 88 % 1000,9 hPa 0,0 l/m 0 min 0 min 0 W/m 22,5 km/h (4 Bft) 97,87 %
11.03.2021 04:32 8,1 C 7,2 C 5,0 C 88 % 1000,9 hPa 0,0 l/m 0 min 0 min 0 W/m 45,1 km/h (6 Bft) 97,87 %
11.03.2021 04:34 8,1 C 7,8 C 5,0 C 88 % 1000,9 hPa 0,0 l/m 0 min 0 min 0 W/m 35,4 km/h (5 Bft) 95,74 %
11.03.2021 04:36 8,1 C 7,8 C 5,6 C 88 % 1001,0 hPa 0,0 l/m 0 min 0 min 0 W/m 38,6 km/h (5 Bft) 95,65 %
11.03.2021 04:38 8,1 C 7,8 C 5,6 C 88 % 1000,9 hPa 0,0 l/m 0 min 0 min 0 W/m 25,7 km/h (4 Bft) 95,74 %
11.03.2021 04:40 8,2 C 7,8 C 5,6 C 88 % 1000,8 hPa 0,0 l/m 0 min 0 min 0 W/m 29,0 km/h (5 Bft) 97,87 %
11.03.2021 04:42 8,2 C 7,8 C 5,6 C 88 % 1000,9 hPa 0,0 l/m 0 min 0 min 0 W/m 29,0 km/h (5 Bft) 97,87 %
11.03.2021 04:44 8,2 C 7,8 C 5,6 C 88 % 1000,8 hPa 0,0 l/m 0 min 0 min 0 W/m 22,5 km/h (4 Bft) 97,87 %
11.03.2021 04:46 8,2 C 7,8 C 5,6 C 88 % 1000,8 hPa 0,0 l/m 0 min 0 min 0 W/m 25,7 km/h (4 Bft) 97,87 %
11.03.2021 04:48 8,2 C 7,8 C 5,6 C 89 % 1000,7 hPa 0,0 l/m 0 min 0 min 0 W/m 35,4 km/h (5 Bft) 97,83 %
11.03.2021 04:50 8,2 C 7,8 C 5,6 C 89 % 1000,7 hPa 0,0 l/m 0 min 0 min 0 W/m 35,4 km/h (5 Bft) 97,87 %
11.03.2021 04:52 8,2 C 7,8 C 5,6 C 89 % 1000,6 hPa 0,0 l/m 0 min 0 min 0 W/m 25,7 km/h (4 Bft) 93,62 %
11.03.2021 04:54 8,2 C 7,8 C 5,6 C 89 % 1000,6 hPa 0,0 l/m 0 min 0 min 0 W/m 29,0 km/h (5 Bft) 97,87 %
11.03.2021 04:56 8,2 C 7,8 C 5,6 C 89 % 1000,7 hPa 0,0 l/m 0 min 0 min 0 W/m 35,4 km/h (5 Bft) 97,87 %
11.03.2021 04:58 8,2 C 7,8 C 5,6 C 89 % 1000,5 hPa 0,0 l/m 0 min 0 min 0 W/m 35,4 km/h (5 Bft) 97,87 %
11.03.2021 05:00 8,2 C 7,8 C 5,6 C 89 % 1000,4 hPa 0,0 l/m 0 min 0 min 0 W/m 29,0 km/h (5 Bft) 95,65 %
11.03.2021 05:02 8,3 C 7,8 C 5,6 C 89 % 1000,3 hPa 0,0 l/m 0 min 0 min 0 W/m 32,2 km/h (5 Bft) 100,00 %
11.03.2021 05:04 8,2 C 7,8 C 5,6 C 89 % 1000,4 hPa 0,0 l/m 0 min 0 min 0 W/m 32,2 km/h (5 Bft) 97,87 %
11.03.2021 05:06 8,2 C 7,8 C 5,6 C 89 % 1000,3 hPa 0,0 l/m 0 min 0 min 0 W/m 32,2 km/h (5 Bft) 93,62 %
11.03.2021 05:08 8,1 C 7,8 C 5,6 C 89 % 1000,3 hPa 0,0 l/m 0 min 0 min 0 W/m 22,5 km/h (4 Bft) 97,87 %
11.03.2021 05:10 8,1 C 7,2 C 5,6 C 90 % 1000,3 hPa 0,0 l/m 0 min 0 min 0 W/m 25,7 km/h (4 Bft) 97,87 %
11.03.2021 05:12 8,1 C 7,2 C 5,6 C 90 % 1000,1 hPa 0,0 l/m 0 min 0 min 0 W/m 29,0 km/h (5 Bft) 97,83 %
11.03.2021 05:14 8,1 C 7,2 C 5,6 C 90 % 1000,0 hPa 0,0 l/m 0 min 0 min 0 W/m 25,7 km/h (4 Bft) 93,62 %
11.03.2021 05:16 8,1 C 7,2 C 5,6 C 90 % 1000,1 hPa 0,0 l/m 0 min 0 min 0 W/m 22,5 km/h (4 Bft) 97,87 %
11.03.2021 05:18 8,1 C 7,2 C 5,6 C 90 % 1000,3 hPa 0,0 l/m 0 min 0 min 0 W/m 35,4 km/h (5 Bft) 97,87 %
11.03.2021 05:20 8,0 C 7,2 C 5,6 C 90 % 1000,1 hPa 0,0 l/m 0 min 0 min 0 W/m 32,2 km/h (5 Bft) 97,87 %
11.03.2021 05:22 8,0 C 7,2 C 5,6 C 90 % 1000,0 hPa 0,0 l/m 0 min 0 min 0 W/m 22,5 km/h (4 Bft) 97,87 %
11.03.2021 05:24 8,0 C 7,2 C 5,6 C 90 % 999,9 hPa 0,0 l/m 0 min 0 min 0 W/m 38,6 km/h (5 Bft) 97,83 %
11.03.2021 05:26 8,0 C 7,2 C 5,6 C 90 % 999,8 hPa 0,0 l/m 0 min 0 min 0 W/m 25,7 km/h (4 Bft) 95,74 %
11.03.2021 05:28 8,0 C 7,2 C 5,6 C 90 % 1000,0 hPa 0,0 l/m 0 min 0 min 0 W/m 38,6 km/h (5 Bft) 97,87 %
11.03.2021 05:30 8,0 C 7,8 C 5,6 C 90 % 1000,0 hPa 0,0 l/m 0 min 0 min 0 W/m 29,0 km/h (5 Bft) 97,87 %
11.03.2021 05:32 8,1 C 7,8 C 5,6 C 90 % 1000,0 hPa 0,0 l/m 0 min 0 min 0 W/m 25,7 km/h (4 Bft) 95,74 %
11.03.2021 05:34 8,1 C 7,8 C 5,6 C 90 % 1000,0 hPa 0,0 l/m 0 min 0 min 0 W/m 19,3 km/h (3 Bft) 97,83 %
11.03.2021 05:36 8,1 C 7,8 C 5,6 C 90 % 999,9 hPa 0,0 l/m 0 min 0 min 0 W/m 22,5 km/h (4 Bft) 95,74 %
11.03.2021 05:38 8,1 C 7,8 C 5,6 C 90 % 999,9 hPa 0,0 l/m 0 min 0 min 0 W/m 22,5 km/h (4 Bft) 97,87 %
11.03.2021 05:40 8,1 C 7,8 C 5,6 C 90 % 999,8 hPa 0,0 l/m 0 min 0 min 0 W/m 32,2 km/h (5 Bft) 97,87 %
11.03.2021 05:42 8,1 C 7,8 C 5,6 C 90 % 999,8 hPa 0,0 l/m 0 min 0 min 0 W/m 19,3 km/h (3 Bft) 97,87 %
11.03.2021 05:44 8,2 C 7,8 C 5,6 C 90 % 999,8 hPa 0,0 l/m 0 min 0 min 0 W/m 25,7 km/h (4 Bft) 95,74 %
11.03.2021 05:46 8,2 C 7,8 C 5,6 C 90 % 999,6 hPa 0,0 l/m 0 min 0 min 0 W/m 25,7 km/h (4 Bft) 93,62 %
11.03.2021 05:48 8,3 C 7,8 C 6,1 C 90 % 999,6 hPa 0,0 l/m 0 min 0 min 0 W/m 25,7 km/h (4 Bft) 97,83 %
11.03.2021 05:50 8,3 C 7,8 C 6,1 C 90 % 999,6 hPa 0,0 l/m 0 min 0 min 0 W/m 25,7 km/h (4 Bft) 95,74 %
11.03.2021 05:52 8,3 C 7,8 C 6,1 C 90 % 999,6 hPa 0,0 l/m 0 min 0 min 0 W/m 25,7 km/h (4 Bft) 91,49 %
11.03.2021 05:54 8,3 C 7,8 C 6,1 C 90 % 999,6 hPa 0,0 l/m 0 min 0 min 0 W/m 19,3 km/h (3 Bft) 93,62 %
11.03.2021 05:56 8,3 C 7,8 C 6,1 C 90 % 999,6 hPa 0,0 l/m 0 min 0 min 0 W/m 19,3 km/h (3 Bft) 95,74 %
11.03.2021 05:58 8,4 C 7,8 C 6,1 C 90 % 999,6 hPa 0,0 l/m 0 min 0 min 0 W/m 22,5 km/h (4 Bft) 95,65 %
11.03.2021 06:00 8,4 C 7,8 C 6,1 C 90 % 999,8 hPa 0,0 l/m 0 min 0 min 0 W/m 29,0 km/h (5 Bft) 95,74 %
11.03.2021 06:02 8,4 C 7,8 C 6,1 C 90 % 999,6 hPa 0,0 l/m 0 min 0 min 0 W/m 22,5 km/h (4 Bft) 95,74 %
11.03.2021 06:04 8,4 C 7,8 C 6,1 C 90 % 999,5 hPa 0,0 l/m 0 min 0 min 0 W/m 22,5 km/h (4 Bft) 95,74 %
11.03.2021 06:08 8,5 C 7,8 C 6,1 C 90 % 999,4 hPa 0,0 l/m 0 min 0 min 0 W/m 35,4 km/h (5 Bft) 95,74 %
11.03.2021 06:10 8,5 C 7,8 C 6,1 C 90 % 999,4 hPa 0,0 l/m 0 min 2 min 0 W/m 48,3 km/h (6 Bft) 93,48 %
11.03.2021 06:12 8,6 C 7,8 C 6,1 C 90 % 999,6 hPa 0,0 l/m 0 min 2 min 0 W/m 38,6 km/h (5 Bft) 93,62 %
11.03.2021 06:14 8,7 C 7,8 C 6,1 C 90 % 999,5 hPa 0,0 l/m 0 min 2 min 0 W/m 29,0 km/h (5 Bft) 95,74 %
11.03.2021 06:16 8,7 C 7,8 C 5,6 C 90 % 999,6 hPa 0,2 l/m 0 min 2 min 0 W/m 32,2 km/h (5 Bft) 93,62 %
11.03.2021 06:18 8,8 C 7,8 C 5,6 C 90 % 999,6 hPa 0,0 l/m 0 min 2 min 0 W/m 29,0 km/h (5 Bft) 95,74 %
11.03.2021 06:20 8,8 C 7,8 C 5,6 C 90 % 999,7 hPa 0,0 l/m 0 min 2 min 0 W/m 51,5 km/h (7 Bft) 95,74 %
11.03.2021 06:22 8,9 C 7,8 C 6,1 C 91 % 999,5 hPa 0,0 l/m 0 min 2 min 0 W/m 32,2 km/h (5 Bft) 95,65 %
11.03.2021 06:24 8,9 C 7,8 C 6,1 C 91 % 999,4 hPa 0,2 l/m 0 min 2 min 0 W/m 38,6 km/h (5 Bft) 95,74 %
11.03.2021 06:26 8,9 C 7,8 C 6,1 C 91 % 999,1 hPa 0,0 l/m 0 min 2 min 0 W/m 32,2 km/h (5 Bft) 95,74 %
11.03.2021 06:28 8,9 C 7,8 C 6,1 C 91 % 999,1 hPa 0,0 l/m 0 min 2 min 0 W/m 35,4 km/h (5 Bft) 97,87 %
11.03.2021 06:30 8,9 C 7,8 C 6,1 C 91 % 999,3 hPa 0,0 l/m 0 min 2 min 0 W/m 35,4 km/h (5 Bft) 95,74 %
11.03.2021 06:32 8,9 C 7,8 C 6,1 C 91 % 999,2 hPa 0,0 l/m 0 min 2 min 0 W/m 29,0 km/h (5 Bft) 97,87 %
11.03.2021 06:34 8,9 C 7,8 C 6,1 C 91 % 999,2 hPa 0,0 l/m 0 min 2 min 0 W/m 25,7 km/h (4 Bft) 97,83 %
11.03.2021 06:36 8,9 C 7,8 C 6,1 C 91 % 999,2 hPa 0,0 l/m 0 min 2 min 0 W/m 25,7 km/h (4 Bft) 95,74 %
11.03.2021 06:38 8,8 C 7,8 C 6,1 C 91 % 999,3 hPa 0,0 l/m 0 min 2 min 0 W/m 35,4 km/h (5 Bft) 100,00 %
11.03.2021 06:40 8,8 C 7,8 C 6,1 C 92 % 999,1 hPa 0,0 l/m 0 min 2 min 0 W/m 32,2 km/h (5 Bft) 100,00 %
11.03.2021 06:42 8,8 C 7,8 C 6,1 C 92 % 999,0 hPa 0,0 l/m 0 min 2 min 0 W/m 19,3 km/h (3 Bft) 100,00 %
11.03.2021 06:44 8,8 C 7,8 C 6,1 C 91 % 999,1 hPa 0,0 l/m 0 min 2 min 0 W/m 29,0 km/h (5 Bft) 97,87 %
11.03.2021 06:46 8,9 C 7,8 C 6,1 C 92 % 998,9 hPa 0,0 l/m 0 min 2 min 0 W/m 29,0 km/h (5 Bft) 97,83 %
11.03.2021 06:48 8,8 C 7,8 C 6,1 C 92 % 998,8 hPa 0,0 l/m 0 min 2 min 0 W/m 25,7 km/h (4 Bft) 100,00 %
11.03.2021 06:50 8,9 C 7,8 C 6,1 C 92 % 998,8 hPa 0,0 l/m 0 min 0 min 0 W/m 29,0 km/h (5 Bft) 100,00 %
11.03.2021 06:52 8,9 C 7,8 C 6,1 C 92 % 999,0 hPa 0,0 l/m 0 min 0 min 0 W/m 32,2 km/h (5 Bft) 100,00 %
11.03.2021 06:54 8,9 C 7,8 C 6,1 C 92 % 998,9 hPa 0,0 l/m 0 min 0 min 0 W/m 32,2 km/h (5 Bft) 97,87 %
11.03.2021 06:56 8,9 C 7,8 C 6,1 C 92 % 999,1 hPa 0,0 l/m 0 min 0 min 0 W/m 32,2 km/h (5 Bft) 100,00 %
11.03.2021 06:58 8,9 C 8,3 C 6,1 C 92 % 999,0 hPa 0,0 l/m 0 min 2 min 0 W/m 48,3 km/h (6 Bft) 100,00 %
11.03.2021 07:00 9,0 C 8,3 C 6,1 C 92 % 998,9 hPa 0,0 l/m 0 min 0 min 0 W/m 38,6 km/h (5 Bft) 100,00 %
11.03.2021 07:02 9,0 C 8,3 C 6,1 C 91 % 998,8 hPa 0,0 l/m 0 min 0 min 0 W/m 29,0 km/h (5 Bft) 100,00 %
11.03.2021 07:04 9,0 C 8,3 C 6,1 C 91 % 998,9 hPa 0,0 l/m 0 min 0 min 0 W/m 22,5 km/h (4 Bft) 100,00 %
11.03.2021 07:06 9,0 C 8,3 C 6,1 C 91 % 998,9 hPa 0,0 l/m 0 min 0 min 0 W/m 48,3 km/h (6 Bft) 97,87 %
11.03.2021 07:08 9,1 C 8,3 C 6,7 C 91 % 999,0 hPa 0,0 l/m 0 min 0 min 0 W/m 57,9 km/h (7 Bft) 97,87 %
11.03.2021 07:10 9,1 C 8,3 C 6,7 C 91 % 998,9 hPa 0,0 l/m 0 min 2 min 0 W/m 38,6 km/h (5 Bft) 95,65 %
11.03.2021 07:12 9,2 C 8,3 C 6,7 C 91 % 999,0 hPa 0,0 l/m 0 min 0 min 0 W/m 32,2 km/h (5 Bft) 97,87 %
11.03.2021 07:14 9,3 C 8,3 C 6,7 C 90 % 999,0 hPa 0,0 l/m 0 min 2 min 0 W/m 45,1 km/h (6 Bft) 95,74 %
11.03.2021 07:16 9,3 C 8,3 C 6,7 C 90 % 999,0 hPa 0,0 l/m 0 min 0 min 0 W/m 38,6 km/h (5 Bft) 97,87 %
11.03.2021 07:18 9,4 C 8,9 C 6,7 C 90 % 998,9 hPa 0,0 l/m 0 min 0 min 0 W/m 35,4 km/h (5 Bft) 97,87 %
11.03.2021 07:20 9,4 C 8,9 C 6,7 C 90 % 998,8 hPa 0,0 l/m 0 min 0 min 0 W/m 45,1 km/h (6 Bft) 97,87 %
11.03.2021 07:22 9,4 C 8,9 C 6,7 C 90 % 998,7 hPa 0,0 l/m 0 min 0 min 0 W/m 25,7 km/h (4 Bft) 97,83 %
11.03.2021 07:24 9,4 C 8,9 C 6,7 C 90 % 998,7 hPa 0,0 l/m 0 min 0 min 0 W/m 29,0 km/h (5 Bft) 97,87 %
11.03.2021 07:26 9,5 C 8,9 C 6,7 C 89 % 998,6 hPa 0,0 l/m 0 min 0 min 0 W/m 25,7 km/h (4 Bft) 97,87 %
11.03.2021 07:28 9,5 C 8,9 C 6,7 C 89 % 998,7 hPa 0,0 l/m 0 min 0 min 0 W/m 29,0 km/h (5 Bft) 93,62 %
11.03.2021 07:30 9,5 C 8,9 C 6,7 C 89 % 998,7 hPa 0,0 l/m 0 min 0 min 0 W/m 35,4 km/h (5 Bft) 93,62 %
11.03.2021 07:32 9,5 C 8,9 C 6,7 C 89 % 998,7 hPa 0,0 l/m 0 min 0 min 0 W/m 35,4 km/h (5 Bft) 97,83 %
11.03.2021 07:34 9,5 C 8,9 C 6,7 C 89 % 998,7 hPa 0,0 l/m 0 min 0 min 0 W/m 38,6 km/h (5 Bft) 97,87 %
11.03.2021 07:36 9,6 C 8,9 C 6,7 C 89 % 998,7 hPa 0,0 l/m 0 min 0 min 0 W/m 32,2 km/h (5 Bft) 97,87 %
11.03.2021 07:38 9,6 C 8,9 C 6,7 C 89 % 998,6 hPa 0,0 l/m 0 min 0 min 4 W/m 29,0 km/h (5 Bft) 97,87 %
11.03.2021 07:40 9,6 C 8,9 C 6,7 C 89 % 998,6 hPa 0,0 l/m 0 min 0 min 5 W/m 38,6 km/h (5 Bft) 97,87 %
11.03.2021 07:42 9,7 C 8,9 C 6,7 C 89 % 998,6 hPa 0,0 l/m 0 min 0 min 5 W/m 32,2 km/h (5 Bft) 97,87 %
11.03.2021 07:44 9,7 C 8,9 C 6,7 C 89 % 998,4 hPa 0,0 l/m 0 min 0 min 5 W/m 25,7 km/h (4 Bft) 91,49 %
11.03.2021 07:46 9,7 C 8,9 C 6,7 C 88 % 998,6 hPa 0,0 l/m 0 min 0 min 5 W/m 45,1 km/h (6 Bft) 97,83 %
11.03.2021 07:48 9,7 C 8,9 C 6,7 C 88 % 998,5 hPa 0,0 l/m 0 min 0 min 6 W/m 22,5 km/h (4 Bft) 97,87 %
11.03.2021 07:50 9,7 C 8,9 C 6,7 C 88 % 998,4 hPa 0,0 l/m 0 min 0 min 7 W/m 41,8 km/h (6 Bft) 97,87 %
11.03.2021 07:52 9,8 C 8,9 C 6,7 C 89 % 998,3 hPa 0,0 l/m 0 min 0 min 6 W/m 29,0 km/h (5 Bft) 97,87 %
11.03.2021 07:54 9,8 C 8,9 C 6,7 C 89 % 998,3 hPa 0,0 l/m 0 min 0 min 5 W/m 32,2 km/h (5 Bft) 100,00 %
11.03.2021 07:56 9,8 C 8,9 C 6,7 C 88 % 998,3 hPa 0,0 l/m 0 min 0 min 6 W/m 35,4 km/h (5 Bft) 100,00 %
11.03.2021 07:58 9,8 C 9,4 C 6,7 C 88 % 998,2 hPa 0,0 l/m 0 min 0 min 7 W/m 38,6 km/h (5 Bft) 100,00 %
11.03.2021 08:00 9,9 C 9,4 C 7,3 C 88 % 998,2 hPa 0,0 l/m 0 min 0 min 5 W/m 29,0 km/h (5 Bft) 100,00 %
11.03.2021 08:02 9,9 C 9,4 C 7,3 C 88 % 998,2 hPa 0,0 l/m 0 min 0 min 5 W/m 54,7 km/h (7 Bft) 95,74 %
11.03.2021 08:04 9,9 C 9,4 C 7,3 C 88 % 998,2 hPa 0,0 l/m 0 min 0 min 0 W/m 35,4 km/h (5 Bft) 100,00 %
11.03.2021 08:06 10,0 C 9,4 C 7,3 C 88 % 998,2 hPa 0,0 l/m 0 min 0 min 0 W/m 29,0 km/h (5 Bft) 100,00 %
11.03.2021 08:08 10,0 C 9,4 C 7,3 C 88 % 998,2 hPa 0,0 l/m 0 min 0 min 5 W/m 48,3 km/h (6 Bft) 100,00 %
11.03.2021 08:10 10,0 C 9,4 C 7,3 C 88 % 998,1 hPa 0,0 l/m 0 min 0 min 9 W/m 35,4 km/h (5 Bft) 100,00 %
11.03.2021 08:12 10,0 C 9,4 C 7,3 C 88 % 998,1 hPa 0,0 l/m 0 min 0 min 20 W/m 41,8 km/h (6 Bft) 97,87 %
11.03.2021 08:14 10,1 C 9,4 C 7,3 C 88 % 998,0 hPa 0,0 l/m 0 min 2 min 26 W/m 38,6 km/h (5 Bft) 100,00 %
11.03.2021 08:16 10,1 C 9,4 C 7,3 C 88 % 998,1 hPa 0,0 l/m 0 min 2 min 19 W/m 32,2 km/h (5 Bft) 100,00 %
11.03.2021 08:18 10,1 C 9,4 C 7,3 C 88 % 998,1 hPa 0,0 l/m 0 min 2 min 19 W/m 48,3 km/h (6 Bft) 100,00 %
11.03.2021 08:20 10,1 C 8,9 C 7,3 C 89 % 998,0 hPa 0,0 l/m 0 min 2 min 18 W/m 25,7 km/h (4 Bft) 100,00 %
11.03.2021 08:22 10,0 C 8,9 C 7,3 C 89 % 998,0 hPa 0,0 l/m 0 min 2 min 22 W/m 51,5 km/h (7 Bft) 97,87 %
11.03.2021 08:24 10,0 C 9,4 C 7,3 C 89 % 998,0 hPa 0,0 l/m 0 min 2 min 22 W/m 41,8 km/h (6 Bft) 100,00 %
11.03.2021 08:26 10,0 C 9,4 C 7,3 C 89 % 997,8 hPa 0,0 l/m 0 min 2 min 20 W/m 32,2 km/h (5 Bft) 100,00 %
11.03.2021 08:28 10,0 C 9,4 C 7,3 C 89 % 997,9 hPa 0,0 l/m 0 min 0 min 19 W/m 41,8 km/h (6 Bft) 100,00 %
11.03.2021 08:30 10,1 C 9,4 C 7,3 C 89 % 998,0 hPa 0,0 l/m 0 min 2 min 28 W/m 45,1 km/h (6 Bft) 97,87 %
11.03.2021 08:32 10,1 C 9,4 C 7,3 C 89 % 997,9 hPa 0,0 l/m 0 min 2 min 43 W/m 29,0 km/h (5 Bft) 96,23 %
11.03.2021 08:34 10,1 C 9,4 C 7,3 C 89 % 997,9 hPa 0,0 l/m 0 min 2 min 64 W/m 48,3 km/h (6 Bft) 97,87 %
11.03.2021 08:36 10,1 C 10,0 C 7,3 C 89 % 997,7 hPa 0,0 l/m 0 min 0 min 102 W/m 38,6 km/h (5 Bft) 97,87 %
11.03.2021 08:38 10,3 C 10,0 C 7,3 C 89 % 997,7 hPa 0,0 l/m 0 min 2 min 110 W/m 54,7 km/h (7 Bft) 97,83 %
11.03.2021 08:40 10,3 C 10,0 C 7,8 C 89 % 997,8 hPa 0,0 l/m 0 min 2 min 115 W/m 48,3 km/h (6 Bft) 97,87 %
11.03.2021 08:42 10,4 C 10,6 C 7,8 C 89 % 997,8 hPa 0,0 l/m 2 min 0 min 128 W/m 41,8 km/h (6 Bft) 95,74 %
11.03.2021 08:44 10,4 C 10,6 C 7,8 C 89 % 997,8 hPa 0,0 l/m 2 min 0 min 142 W/m 19,3 km/h (3 Bft) 97,87 %
11.03.2021 08:46 10,5 C 10,6 C 7,8 C 89 % 997,8 hPa 0,0 l/m 0 min 0 min 127 W/m 51,5 km/h (7 Bft) 97,87 %
11.03.2021 08:48 10,6 C 10,6 C 7,8 C 88 % 997,8 hPa 0,0 l/m 0 min 0 min 106 W/m 45,1 km/h (6 Bft) 97,87 %
11.03.2021 08:50 10,6 C 10,6 C 7,8 C 88 % 997,7 hPa 0,0 l/m 0 min 0 min 76 W/m 38,6 km/h (5 Bft) 97,83 %
11.03.2021 08:52 10,7 C 10,6 C 7,8 C 88 % 997,7 hPa 0,0 l/m 0 min 0 min 70 W/m 38,6 km/h (5 Bft) 97,87 %
11.03.2021 08:54 10,8 C 10,6 C 7,8 C 88 % 997,7 hPa 0,0 l/m 0 min 2 min 75 W/m 38,6 km/h (5 Bft) 97,87 %
11.03.2021 08:56 10,8 C 10,6 C 8,4 C 88 % 997,8 hPa 0,0 l/m 0 min 2 min 86 W/m 48,3 km/h (6 Bft) 97,87 %
11.03.2021 08:58 10,8 C 10,6 C 8,4 C 88 % 997,7 hPa 0,0 l/m 0 min 0 min 66 W/m 29,0 km/h (5 Bft) 95,74 %
11.03.2021 09:00 10,9 C 10,0 C 8,4 C 88 % 997,6 hPa 0,0 l/m 0 min 2 min 50 W/m 38,6 km/h (5 Bft) 97,87 %
11.03.2021 09:02 10,9 C 10,0 C 7,8 C 88 % 997,7 hPa 0,0 l/m 0 min 2 min 42 W/m 45,1 km/h (6 Bft) 97,83 %
11.03.2021 09:04 10,9 C 10,0 C 7,8 C 88 % 997,6 hPa 0,0 l/m 0 min 2 min 27 W/m 48,3 km/h (6 Bft) 97,87 %
11.03.2021 09:06 10,8 C 10,0 C 7,8 C 88 % 997,5 hPa 0,0 l/m 0 min 2 min 30 W/m 45,1 km/h (6 Bft) 95,74 %
11.03.2021 09:08 10,8 C 10,0 C 7,8 C 88 % 997,6 hPa 0,0 l/m 0 min 2 min 42 W/m 35,4 km/h (5 Bft) 97,87 %
11.03.2021 09:10 10,8 C 10,0 C 8,4 C 88 % 997,6 hPa 0,0 l/m 0 min 2 min 77 W/m 35,4 km/h (5 Bft) 97,87 %
11.03.2021 09:12 10,8 C 10,6 C 8,4 C 88 % 997,4 hPa 0,0 l/m 0 min 2 min 78 W/m 41,8 km/h (6 Bft) 97,83 %
11.03.2021 09:14 10,8 C 10,6 C 8,4 C 88 % 997,3 hPa 0,0 l/m 0 min 2 min 57 W/m 51,5 km/h (7 Bft) 97,87 %
11.03.2021 09:16 10,8 C 10,6 C 8,4 C 88 % 997,4 hPa 0,0 l/m 0 min 2 min 44 W/m 48,3 km/h (6 Bft) 95,74 %
11.03.2021 09:18 10,9 C 10,6 C 8,4 C 88 % 997,4 hPa 0,0 l/m 0 min 2 min 56 W/m 32,2 km/h (5 Bft) 97,87 %
11.03.2021 09:20 10,9 C 10,6 C 8,4 C 88 % 997,4 hPa 0,0 l/m 0 min 0 min 48 W/m 35,4 km/h (5 Bft) 95,74 %
11.03.2021 09:22 10,9 C 10,6 C 8,4 C 87 % 997,4 hPa 0,0 l/m 0 min 0 min 76 W/m 54,7 km/h (7 Bft) 100,00 %
11.03.2021 09:24 11,0 C 10,6 C 8,9 C 87 % 997,4 hPa 0,2 l/m 0 min 0 min 89 W/m 35,4 km/h (5 Bft) 100,00 %
11.03.2021 09:26 11,0 C 10,6 C 8,9 C 87 % 997,4 hPa 0,0 l/m 0 min 0 min 89 W/m 25,7 km/h (4 Bft) 100,00 %
11.03.2021 09:28 11,0 C 10,6 C 8,9 C 87 % 997,3 hPa 0,0 l/m 0 min 2 min 96 W/m 35,4 km/h (5 Bft) 97,87 %
11.03.2021 09:30 11,1 C 10,6 C 8,4 C 87 % 997,2 hPa 0,0 l/m 0 min 2 min 96 W/m 54,7 km/h (7 Bft) 100,00 %
11.03.2021 09:32 11,1 C 10,6 C 8,4 C 86 % 997,2 hPa 0,0 l/m 0 min 2 min 101 W/m 35,4 km/h (5 Bft) 100,00 %
11.03.2021 09:34 11,1 C 10,6 C 8,4 C 86 % 997,2 hPa 0,0 l/m 0 min 2 min 122 W/m 32,2 km/h (5 Bft) 97,87 %
11.03.2021 09:36 11,1 C 11,1 C 8,4 C 86 % 997,1 hPa 0,0 l/m 0 min 2 min 125 W/m 32,2 km/h (5 Bft) 100,00 %
11.03.2021 09:38 11,2 C 11,1 C 8,9 C 85 % 997,1 hPa 0,0 l/m 0 min 0 min 142 W/m 51,5 km/h (7 Bft) 100,00 %
11.03.2021 09:40 11,3 C 11,1 C 8,9 C 85 % 997,0 hPa 0,0 l/m 0 min 0 min 148 W/m 38,6 km/h (5 Bft) 100,00 %
11.03.2021 09:42 11,3 C 11,1 C 9,5 C 84 % 997,0 hPa 0,0 l/m 0 min 0 min 166 W/m 48,3 km/h (6 Bft) 100,00 %
11.03.2021 09:44 11,4 C 11,7 C 9,5 C 84 % 997,0 hPa 0,0 l/m 0 min 0 min 194 W/m 61,2 km/h (7 Bft) 97,87 %
11.03.2021 09:46 11,4 C 11,7 C 9,5 C 83 % 997,1 hPa 0,0 l/m 2 min 0 min 240 W/m 45,1 km/h (6 Bft) 100,00 %
11.03.2021 09:48 11,5 C 11,7 C 10,0 C 83 % 997,1 hPa 0,0 l/m 2 min 0 min 270 W/m 41,8 km/h (6 Bft) 100,00 %
11.03.2021 09:50 11,6 C 11,7 C 10,0 C 82 % 997,1 hPa 0,0 l/m 2 min 0 min 263 W/m 38,6 km/h (5 Bft) 97,87 %
11.03.2021 09:52 11,6 C 11,7 C 10,0 C 83 % 997,1 hPa 0,0 l/m 2 min 0 min 235 W/m 29,0 km/h (5 Bft) 97,87 %
11.03.2021 09:54 11,6 C 11,7 C 10,0 C 83 % 997,1 hPa 0,0 l/m 2 min 0 min 309 W/m 67,6 km/h (8 Bft) 97,87 %
11.03.2021 09:56 11,6 C 11,7 C 10,0 C 82 % 997,0 hPa 0,0 l/m 2 min 0 min 346 W/m 45,1 km/h (6 Bft) 97,87 %
11.03.2021 09:58 11,6 C 11,7 C 10,0 C 82 % 997,0 hPa 0,0 l/m 2 min 0 min 283 W/m 48,3 km/h (6 Bft) 97,87 %
11.03.2021 10:00 11,6 C 11,7 C 9,5 C 82 % 997,0 hPa 0,0 l/m 2 min 0 min 283 W/m 48,3 km/h (6 Bft) 97,14 %
11.03.2021 10:02 11,6 C 11,7 C 9,5 C 82 % 996,9 hPa 0,0 l/m 2 min 0 min 229 W/m 25,7 km/h (4 Bft) 97,96 %
11.03.2021 10:04 11,6 C 11,1 C 9,5 C 82 % 996,9 hPa 0,0 l/m 0 min 0 min 164 W/m 29,0 km/h (5 Bft) 95,74 %
11.03.2021 10:06 11,5 C 11,1 C 8,9 C 82 % 997,0 hPa 0,0 l/m 0 min 0 min 138 W/m 35,4 km/h (5 Bft) 97,87 %
11.03.2021 10:08 11,5 C 11,1 C 8,9 C 82 % 997,0 hPa 0,0 l/m 0 min 0 min 123 W/m 45,1 km/h (6 Bft) 97,87 %
11.03.2021 10:10 11,4 C 11,1 C 8,9 C 82 % 997,1 hPa 0,0 l/m 0 min 2 min 133 W/m 35,4 km/h (5 Bft) 97,87 %
11.03.2021 10:12 11,4 C 10,6 C 8,9 C 82 % 997,1 hPa 0,0 l/m 0 min 2 min 106 W/m 35,4 km/h (5 Bft) 95,74 %
11.03.2021 10:14 11,3 C 10,6 C 8,9 C 82 % 997,1 hPa 0,0 l/m 0 min 2 min 95 W/m 25,7 km/h (4 Bft) 93,48 %
11.03.2021 10:16 11,3 C 10,0 C 8,4 C 83 % 997,1 hPa 0,0 l/m 0 min 2 min 93 W/m 32,2 km/h (5 Bft) 95,74 %
11.03.2021 10:18 11,1 C 10,0 C 7,8 C 83 % 996,9 hPa 0,0 l/m 0 min 2 min 104 W/m 35,4 km/h (5 Bft) 95,74 %
11.03.2021 10:20 11,0 C 10,0 C 7,8 C 83 % 997,0 hPa 0,0 l/m 0 min 2 min 142 W/m 38,6 km/h (5 Bft) 95,74 %
11.03.2021 10:22 10,9 C 10,0 C 7,8 C 84 % 996,9 hPa 0,0 l/m 0 min 2 min 192 W/m 29,0 km/h (5 Bft) 93,62 %
11.03.2021 10:24 10,8 C 10,0 C 7,8 C 84 % 996,8 hPa 0,0 l/m 0 min 2 min 190 W/m 25,7 km/h (4 Bft) 95,74 %
11.03.2021 10:26 10,8 C 10,0 C 7,8 C 85 % 997,0 hPa 0,0 l/m 0 min 2 min 144 W/m 32,2 km/h (5 Bft) 95,65 %
11.03.2021 10:28 10,7 C 10,0 C 7,8 C 85 % 997,0 hPa 0,0 l/m 0 min 2 min 109 W/m 35,4 km/h (5 Bft) 95,74 %
11.03.2021 10:30 10,6 C 10,0 C 7,8 C 85 % 997,0 hPa 0,0 l/m 0 min 2 min 117 W/m 29,0 km/h (5 Bft) 95,74 %
11.03.2021 10:32 10,6 C 10,0 C 7,8 C 86 % 997,1 hPa 0,0 l/m 0 min 2 min 122 W/m 29,0 km/h (5 Bft) 95,83 %
11.03.2021 10:34 10,5 C 10,0 C 7,8 C 86 % 997,0 hPa 0,0 l/m 0 min 2 min 115 W/m 29,0 km/h (5 Bft) 95,74 %
11.03.2021 10:36 10,5 C 10,0 C 7,8 C 86 % 997,0 hPa 0,0 l/m 0 min 2 min 101 W/m 32,2 km/h (5 Bft) 93,48 %
11.03.2021 10:38 10,5 C 10,0 C 8,4 C 86 % 996,7 hPa 0,0 l/m 0 min 2 min 115 W/m 38,6 km/h (5 Bft) 97,87 %
11.03.2021 10:40 10,5 C 11,7 C 10,0 C 86 % 996,7 hPa 0,0 l/m 2 min 2 min 305 W/m 38,6 km/h (5 Bft) 97,87 %
11.03.2021 10:42 10,6 C 12,8 C 12,3 C 86 % 996,7 hPa 0,0 l/m 2 min 2 min 489 W/m 25,7 km/h (4 Bft) 97,87 %
11.03.2021 10:44 10,8 C 13,3 C 12,8 C 86 % 996,8 hPa 0,0 l/m 2 min 2 min 510 W/m 29,0 km/h (5 Bft) 97,87 %
11.03.2021 10:46 10,9 C 13,3 C 13,4 C 85 % 996,9 hPa 0,0 l/m 2 min 2 min 514 W/m 45,1 km/h (6 Bft) 97,87 %
11.03.2021 10:48 11,0 C 13,9 C 13,9 C 85 % 996,8 hPa 0,0 l/m 2 min 0 min 517 W/m 32,2 km/h (5 Bft) 97,83 %
11.03.2021 10:50 11,2 C 15,0 C 13,9 C 85 % 996,9 hPa 0,0 l/m 2 min 0 min 521 W/m 22,5 km/h (4 Bft) 97,87 %
11.03.2021 10:52 11,4 C 15,0 C 14,5 C 84 % 996,8 hPa 0,0 l/m 2 min 0 min 514 W/m 25,7 km/h (4 Bft) 97,87 %
11.03.2021 10:54 11,5 C 15,0 C 14,5 C 83 % 996,7 hPa 0,0 l/m 2 min 0 min 528 W/m 35,4 km/h (5 Bft) 95,74 %
11.03.2021 10:56 11,6 C 15,6 C 15,6 C 83 % 996,8 hPa 0,0 l/m 2 min 0 min 532 W/m 22,5 km/h (4 Bft) 95,74 %
11.03.2021 10:58 11,8 C 15,6 C 15,0 C 82 % 996,7 hPa 0,0 l/m 2 min 0 min 539 W/m 32,2 km/h (5 Bft) 97,87 %
11.03.2021 11:00 11,9 C 15,6 C 15,0 C 81 % 996,7 hPa 0,0 l/m 2 min 0 min 541 W/m 38,6 km/h (5 Bft) 97,83 %
11.03.2021 11:02 12,1 C 15,6 C 15,0 C 80 % 996,7 hPa 0,0 l/m 2 min 0 min 544 W/m 22,5 km/h (4 Bft) 95,74 %
11.03.2021 11:04 12,2 C 15,6 C 13,9 C 80 % 996,8 hPa 0,0 l/m 2 min 0 min 544 W/m 48,3 km/h (6 Bft) 97,87 %
11.03.2021 11:06 12,3 C 15,6 C 13,9 C 79 % 996,7 hPa 0,0 l/m 2 min 0 min 549 W/m 45,1 km/h (6 Bft) 97,87 %
11.03.2021 11:08 12,4 C 15,6 C 15,0 C 78 % 996,5 hPa 0,0 l/m 2 min 0 min 555 W/m 35,4 km/h (5 Bft) 95,74 %
11.03.2021 11:10 12,5 C 16,1 C 15,6 C 78 % 996,8 hPa 0,0 l/m 2 min 0 min 555 W/m 41,8 km/h (6 Bft) 97,87 %
11.03.2021 11:12 12,6 C 16,1 C 15,6 C 78 % 996,5 hPa 0,0 l/m 2 min 0 min 558 W/m 41,8 km/h (6 Bft) 97,83 %
11.03.2021 11:14 12,7 C 16,1 C 15,6 C 77 % 996,8 hPa 0,0 l/m 2 min 0 min 565 W/m 38,6 km/h (5 Bft) 97,87 %
11.03.2021 11:16 12,8 C 16,7 C 16,7 C 77 % 996,8 hPa 0,0 l/m 2 min 0 min 567 W/m 35,4 km/h (5 Bft) 97,87 %
11.03.2021 11:18 12,9 C 16,1 C 16,1 C 76 % 996,8 hPa 0,0 l/m 2 min 0 min 572 W/m 41,8 km/h (6 Bft) 97,87 %
11.03.2021 11:20 13,0 C 16,1 C 16,1 C 74 % 996,6 hPa 0,0 l/m 2 min 0 min 577 W/m 41,8 km/h (6 Bft) 100,00 %
11.03.2021 11:22 13,1 C 16,7 C 16,1 C 73 % 996,7 hPa 0,0 l/m 2 min 0 min 585 W/m 38,6 km/h (5 Bft) 100,00 %
11.03.2021 11:24 13,2 C 16,1 C 15,6 C 72 % 996,8 hPa 0,0 l/m 2 min 0 min 591 W/m 35,4 km/h (5 Bft) 100,00 %
11.03.2021 11:26 13,3 C 16,1 C 15,6 C 71 % 996,8 hPa 0,0 l/m 2 min 0 min 605 W/m 35,4 km/h (5 Bft) 100,00 %
11.03.2021 11:28 13,4 C 17,2 C 16,1 C 72 % 996,9 hPa 0,0 l/m 2 min 0 min 644 W/m 35,4 km/h (5 Bft) 95,74 %
11.03.2021 11:30 13,6 C 17,8 C 16,7 C 70 % 996,7 hPa 0,0 l/m 2 min 0 min 703 W/m 29,0 km/h (5 Bft) 100,00 %
11.03.2021 11:32 13,7 C 16,7 C 15,6 C 69 % 996,7 hPa 0,0 l/m 2 min 0 min 721 W/m 48,3 km/h (6 Bft) 100,00 %
11.03.2021 11:34 13,8 C 16,7 C 15,6 C 70 % 996,7 hPa 0,0 l/m 2 min 0 min 725 W/m 25,7 km/h (4 Bft) 97,87 %
11.03.2021 11:36 13,8 C 15,0 C 12,8 C 69 % 996,9 hPa 0,0 l/m 2 min 0 min 355 W/m 57,9 km/h (7 Bft) 95,74 %
11.03.2021 11:38 13,8 C 15,0 C 12,8 C 68 % 996,8 hPa 0,0 l/m 0 min 0 min 183 W/m 35,4 km/h (5 Bft) 100,00 %
11.03.2021 11:40 13,8 C 14,4 C 10,6 C 68 % 996,7 hPa 0,0 l/m 0 min 0 min 176 W/m 29,0 km/h (5 Bft) 100,00 %
11.03.2021 11:42 13,8 C 14,4 C 10,6 C 69 % 996,7 hPa 0,0 l/m 0 min 0 min 201 W/m 25,7 km/h (4 Bft) 100,00 %
11.03.2021 11:44 13,8 C 15,6 C 12,3 C 69 % 996,6 hPa 0,0 l/m 0 min 0 min 219 W/m 19,3 km/h (3 Bft) 100,00 %
11.03.2021 11:46 13,8 C 16,1 C 13,4 C 69 % 996,7 hPa 0,0 l/m 2 min 0 min 609 W/m 32,2 km/h (5 Bft) 97,87 %
11.03.2021 11:48 13,9 C 16,1 C 12,8 C 69 % 996,8 hPa 0,0 l/m 2 min 0 min 295 W/m 51,5 km/h (7 Bft) 100,00 %
11.03.2021 11:50 13,9 C 15,6 C 12,8 C 68 % 996,7 hPa 0,0 l/m 2 min 0 min 696 W/m 41,8 km/h (6 Bft) 97,87 %
11.03.2021 11:52 13,9 C 15,0 C 12,8 C 68 % 996,7 hPa 0,0 l/m 2 min 0 min 696 W/m 54,7 km/h (7 Bft) 95,74 %
11.03.2021 11:54 13,9 C 15,0 C 12,8 C 69 % 996,7 hPa 0,0 l/m 2 min 0 min 549 W/m 35,4 km/h (5 Bft) 97,83 %
11.03.2021 11:56 13,8 C 13,9 C 11,7 C 68 % 996,9 hPa 0,0 l/m 0 min 0 min 161 W/m 54,7 km/h (7 Bft) 97,87 %
11.03.2021 11:58 13,8 C 15,0 C 12,8 C 69 % 996,8 hPa 0,0 l/m 0 min 0 min 155 W/m 35,4 km/h (5 Bft) 97,87 %
11.03.2021 12:00 13,8 C 14,4 C 12,3 C 68 % 996,9 hPa 0,0 l/m 0 min 0 min 155 W/m 57,9 km/h (7 Bft) 100,00 %
11.03.2021 12:02 13,7 C 13,3 C 11,1 C 69 % 997,0 hPa 0,0 l/m 0 min 0 min 137 W/m 29,0 km/h (5 Bft) 100,00 %
11.03.2021 12:04 13,6 C 13,3 C 10,6 C 69 % 997,0 hPa 0,0 l/m 0 min 0 min 144 W/m 32,2 km/h (5 Bft) 97,92 %
11.03.2021 12:08 13,5 C 13,3 C 11,1 C 69 % 997,0 hPa 0,0 l/m 0 min 0 min 193 W/m 41,8 km/h (6 Bft) 100,00 %
11.03.2021 12:10 13,4 C 13,3 C 10,6 C 69 % 997,0 hPa 0,0 l/m 0 min 0 min 145 W/m 35,4 km/h (5 Bft) 97,87 %
11.03.2021 12:12 13,4 C 13,3 C 10,6 C 69 % 997,1 hPa 0,0 l/m 0 min 0 min 139 W/m 29,0 km/h (5 Bft) 97,87 %
11.03.2021 12:14 13,4 C 13,3 C 11,1 C 69 % 997,1 hPa 0,0 l/m 0 min 0 min 200 W/m 25,7 km/h (4 Bft) 95,74 %
11.03.2021 12:16 13,4 C 13,3 C 10,6 C 68 % 996,9 hPa 0,0 l/m 0 min 0 min 167 W/m 32,2 km/h (5 Bft) 97,87 %
11.03.2021 12:18 13,4 C 13,9 C 11,7 C 69 % 997,2 hPa 0,0 l/m 0 min 0 min 183 W/m 22,5 km/h (4 Bft) 97,87 %
11.03.2021 12:20 13,4 C 13,9 C 11,1 C 67 % 997,0 hPa 0,0 l/m 0 min 0 min 177 W/m 48,3 km/h (6 Bft) 97,83 %
11.03.2021 12:22 13,5 C 13,3 C 10,6 C 65 % 997,3 hPa 0,0 l/m 0 min 0 min 152 W/m 32,2 km/h (5 Bft) 95,74 %
11.03.2021 12:24 13,4 C 13,3 C 10,6 C 64 % 997,3 hPa 0,0 l/m 0 min 0 min 181 W/m 67,6 km/h (8 Bft) 97,87 %
11.03.2021 12:26 13,4 C 13,3 C 10,6 C 64 % 997,0 hPa 0,0 l/m 0 min 0 min 255 W/m 32,2 km/h (5 Bft) 95,74 %
11.03.2021 12:28 13,4 C 13,3 C 10,6 C 64 % 997,1 hPa 0,0 l/m 0 min 0 min 225 W/m 22,5 km/h (4 Bft) 97,87 %
11.03.2021 12:30 13,4 C 13,3 C 10,6 C 64 % 997,2 hPa 0,0 l/m 0 min 0 min 176 W/m 29,0 km/h (5 Bft) 97,87 %
11.03.2021 12:32 13,4 C 13,9 C 11,1 C 65 % 997,3 hPa 0,0 l/m 0 min 0 min 164 W/m 32,2 km/h (5 Bft) 95,65 %
11.03.2021 12:34 13,4 C 13,9 C 11,1 C 65 % 997,2 hPa 0,0 l/m 0 min 0 min 166 W/m 35,4 km/h (5 Bft) 95,74 %
11.03.2021 12:36 13,4 C 13,3 C 10,6 C 64 % 997,1 hPa 0,0 l/m 0 min 0 min 158 W/m 35,4 km/h (5 Bft) 93,62 %
11.03.2021 12:38 13,4 C 13,9 C 11,1 C 65 % 997,2 hPa 0,0 l/m 0 min 0 min 214 W/m 22,5 km/h (4 Bft) 95,74 %
11.03.2021 12:40 13,4 C 13,9 C 11,1 C 66 % 997,3 hPa 0,0 l/m 0 min 0 min 228 W/m 35,4 km/h (5 Bft) 95,74 %
11.03.2021 12:42 13,4 C 13,3 C 10,6 C 65 % 997,3 hPa 0,0 l/m 0 min 0 min 179 W/m 38,6 km/h (5 Bft) 95,74 %
11.03.2021 12:44 13,4 C 13,3 C 10,6 C 66 % 997,2 hPa 0,0 l/m 0 min 0 min 176 W/m 22,5 km/h (4 Bft) 95,65 %
11.03.2021 12:46 13,4 C 13,3 C 10,6 C 65 % 997,2 hPa 0,0 l/m 0 min 0 min 180 W/m 22,5 km/h (4 Bft) 93,62 %
11.03.2021 12:48 13,4 C 13,3 C 10,6 C 66 % 997,3 hPa 0,0 l/m 0 min 0 min 210 W/m 25,7 km/h (4 Bft) 95,74 %
11.03.2021 12:50 13,4 C 13,3 C 11,1 C 66 % 997,2 hPa 0,0 l/m 0 min 0 min 225 W/m 38,6 km/h (5 Bft) 95,74 %
11.03.2021 12:52 13,4 C 13,3 C 11,1 C 65 % 997,4 hPa 0,0 l/m 2 min 0 min 288 W/m 61,2 km/h (7 Bft) 95,74 %
11.03.2021 12:54 13,4 C 14,4 C 12,3 C 65 % 997,3 hPa 0,0 l/m 0 min 0 min 250 W/m 48,3 km/h (6 Bft) 93,48 %
11.03.2021 12:56 13,5 C 15,6 C 13,9 C 65 % 997,2 hPa 0,0 l/m 2 min 0 min 679 W/m 41,8 km/h (6 Bft) 95,74 %
11.03.2021 12:58 13,6 C 16,7 C 14,5 C 65 % 997,2 hPa 0,0 l/m 2 min 0 min 696 W/m 29,0 km/h (5 Bft) 93,62 %
11.03.2021 13:00 13,7 C 16,1 C 13,9 C 65 % 997,3 hPa 0,0 l/m 2 min 0 min 698 W/m 38,6 km/h (5 Bft) 95,74 %
11.03.2021 13:02 13,8 C 16,7 C 15,0 C 65 % 997,3 hPa 0,0 l/m 2 min 0 min 313 W/m 25,7 km/h (4 Bft) 95,74 %
11.03.2021 13:04 13,9 C 15,6 C 13,4 C 65 % 997,2 hPa 0,0 l/m 2 min 0 min 654 W/m 51,5 km/h (7 Bft) 95,74 %
11.03.2021 13:06 13,9 C 15,6 C 13,4 C 66 % 997,2 hPa 0,0 l/m 2 min 0 min 285 W/m 19,3 km/h (3 Bft) 95,65 %
11.03.2021 13:08 14,0 C 15,6 C 13,4 C 66 % 997,3 hPa 0,0 l/m 2 min 0 min 333 W/m 22,5 km/h (4 Bft) 95,74 %
11.03.2021 13:10 14,0 C 15,0 C 12,3 C 65 % 997,2 hPa 0,0 l/m 0 min 0 min 269 W/m 35,4 km/h (5 Bft) 95,74 %
11.03.2021 13:12 14,0 C 16,1 C 12,8 C 65 % 997,0 hPa 0,0 l/m 0 min 0 min 281 W/m 51,5 km/h (7 Bft) 95,74 %
11.03.2021 13:14 14,1 C 15,0 C 12,3 C 64 % 997,2 hPa 0,0 l/m 0 min 0 min 273 W/m 45,1 km/h (6 Bft) 97,87 %
11.03.2021 13:16 14,0 C 13,9 C 11,1 C 63 % 997,3 hPa 0,0 l/m 0 min 0 min 202 W/m 51,5 km/h (7 Bft) 95,74 %
11.03.2021 13:18 13,9 C 13,3 C 11,1 C 63 % 997,2 hPa 0,0 l/m 0 min 0 min 179 W/m 41,8 km/h (6 Bft) 100,00 %
11.03.2021 13:20 13,8 C 13,3 C 11,1 C 63 % 997,3 hPa 0,0 l/m 0 min 0 min 203 W/m 41,8 km/h (6 Bft) 100,00 %
11.03.2021 13:22 13,8 C 13,3 C 10,6 C 64 % 997,4 hPa 0,0 l/m 0 min 0 min 142 W/m 25,7 km/h (4 Bft) 97,87 %
11.03.2021 13:24 13,7 C 13,3 C 10,6 C 63 % 997,5 hPa 0,0 l/m 0 min 0 min 156 W/m 25,7 km/h (4 Bft) 100,00 %
11.03.2021 13:26 13,6 C 13,3 C 10,6 C 63 % 997,5 hPa 0,0 l/m 0 min 0 min 212 W/m 45,1 km/h (6 Bft) 100,00 %
11.03.2021 13:28 13,6 C 13,3 C 10,6 C 64 % 997,4 hPa 0,0 l/m 0 min 0 min 212 W/m 25,7 km/h (4 Bft) 100,00 %
11.03.2021 13:30 13,5 C 13,3 C 10,6 C 64 % 997,5 hPa 0,0 l/m 0 min 0 min 195 W/m 32,2 km/h (5 Bft) 100,00 %
11.03.2021 13:32 13,5 C 13,3 C 10,6 C 63 % 997,4 hPa 0,0 l/m 0 min 0 min 187 W/m 48,3 km/h (6 Bft) 97,87 %
11.03.2021 13:34 13,5 C 13,3 C 10,6 C 64 % 997,5 hPa 0,0 l/m 0 min 0 min 224 W/m 25,7 km/h (4 Bft) 97,87 %
11.03.2021 13:36 13,5 C 15,0 C 11,1 C 64 % 997,4 hPa 0,0 l/m 0 min 0 min 255 W/m 22,5 km/h (4 Bft) 97,87 %
11.03.2021 13:38 13,5 C 14,4 C 11,1 C 64 % 997,6 hPa 0,0 l/m 0 min 0 min 270 W/m 35,4 km/h (5 Bft) 97,87 %
11.03.2021 13:40 13,6 C 14,4 C 11,1 C 64 % 997,7 hPa 0,0 l/m 2 min 0 min 286 W/m 38,6 km/h (5 Bft) 100,00 %
11.03.2021 13:42 13,6 C 15,0 C 12,3 C 64 % 997,6 hPa 0,0 l/m 2 min 0 min 299 W/m 41,8 km/h (6 Bft) 94,83 %
11.03.2021 13:44 13,7 C 15,6 C 12,8 C 65 % 997,5 hPa 0,0 l/m 2 min 0 min 347 W/m 19,3 km/h (3 Bft) 95,74 %
11.03.2021 13:46 13,8 C 15,6 C 12,8 C 63 % 997,6 hPa 0,0 l/m 2 min 0 min 343 W/m 29,0 km/h (5 Bft) 97,87 %
11.03.2021 13:48 13,9 C 14,4 C 12,3 C 63 % 997,4 hPa 0,0 l/m 0 min 0 min 265 W/m 35,4 km/h (5 Bft) 97,87 %
11.03.2021 13:50 13,9 C 13,9 C 11,7 C 63 % 997,5 hPa 0,0 l/m 0 min 0 min 270 W/m 35,4 km/h (5 Bft) 97,87 %
11.03.2021 13:52 13,8 C 13,9 C 11,1 C 63 % 997,5 hPa 0,0 l/m 0 min 2 min 208 W/m 35,4 km/h (5 Bft) 97,14 %
11.03.2021 13:54 13,8 C 13,3 C 10,6 C 63 % 997,6 hPa 0,0 l/m 0 min 2 min 181 W/m 38,6 km/h (5 Bft) 98,28 %
11.03.2021 13:56 13,7 C 13,9 C 11,1 C 63 % 997,4 hPa 0,0 l/m 0 min 0 min 224 W/m 29,0 km/h (5 Bft) 97,22 %
11.03.2021 13:58 13,7 C 13,9 C 11,1 C 64 % 997,5 hPa 0,0 l/m 2 min 0 min 272 W/m 19,3 km/h (3 Bft) 98,28 %
11.03.2021 14:00 13,7 C 13,9 C 11,1 C 64 % 997,5 hPa 0,0 l/m 0 min 0 min 218 W/m 12,9 km/h (3 Bft) 97,14 %
11.03.2021 14:02 13,7 C 13,9 C 11,7 C 64 % 997,4 hPa 0,0 l/m 0 min 0 min 262 W/m 38,6 km/h (5 Bft) 98,31 %
11.03.2021 14:04 13,7 C 15,0 C 11,7 C 63 % 997,5 hPa 0,0 l/m 2 min 0 min 315 W/m 32,2 km/h (5 Bft) 95,74 %
11.03.2021 14:06 13,8 C 15,0 C 12,3 C 64 % 997,5 hPa 0,0 l/m 2 min 0 min 299 W/m 19,3 km/h (3 Bft) 97,83 %
11.03.2021 14:08 13,8 C 15,6 C 12,8 C 64 % 997,5 hPa 0,0 l/m 2 min 0 min 272 W/m 19,3 km/h (3 Bft) 97,87 %
11.03.2021 14:10 13,9 C 17,8 C 14,5 C 64 % 997,5 hPa 0,0 l/m 2 min 0 min 265 W/m 16,1 km/h (3 Bft) 97,14 %
11.03.2021 14:12 14,0 C 18,9 C 15,0 C 64 % 997,5 hPa 0,0 l/m 2 min 0 min 649 W/m 19,3 km/h (3 Bft) 97,87 %
11.03.2021 14:14 14,1 C 16,7 C 13,4 C 64 % 997,5 hPa 0,0 l/m 2 min 0 min 486 W/m 29,0 km/h (5 Bft) 97,87 %
11.03.2021 14:16 14,2 C 15,0 C 12,3 C 62 % 997,5 hPa 0,0 l/m 0 min 0 min 108 W/m 32,2 km/h (5 Bft) 98,31 %
11.03.2021 14:18 14,1 C 13,3 C 10,0 C 63 % 997,7 hPa 0,0 l/m 0 min 2 min 85 W/m 25,7 km/h (4 Bft) 97,14 %
11.03.2021 14:20 13,8 C 12,8 C 8,9 C 64 % 997,8 hPa 0,0 l/m 0 min 2 min 111 W/m 45,1 km/h (6 Bft) 97,87 %
11.03.2021 14:22 13,4 C 13,3 C 9,5 C 67 % 997,6 hPa 0,0 l/m 0 min 2 min 226 W/m 32,2 km/h (5 Bft) 96,55 %
11.03.2021 14:24 13,2 C 12,8 C 9,5 C 68 % 997,7 hPa 0,0 l/m 0 min 2 min 252 W/m 35,4 km/h (5 Bft) 100,00 %
11.03.2021 14:26 13,0 C 12,2 C 8,9 C 68 % 997,6 hPa 0,0 l/m 0 min 2 min 68 W/m 35,4 km/h (5 Bft) 98,31 %
11.03.2021 14:28 12,8 C 13,9 C 10,0 C 68 % 997,6 hPa 0,0 l/m 2 min 0 min 285 W/m 35,4 km/h (5 Bft) 100,00 %
11.03.2021 14:30 12,8 C 15,0 C 10,6 C 69 % 997,6 hPa 0,0 l/m 2 min 0 min 605 W/m 29,0 km/h (5 Bft) 100,00 %
11.03.2021 14:32 12,8 C 15,0 C 11,1 C 68 % 997,6 hPa 0,0 l/m 2 min 0 min 497 W/m 16,1 km/h (3 Bft) 100,00 %
11.03.2021 14:34 12,8 C 15,0 C 10,6 C 69 % 997,7 hPa 0,0 l/m 0 min 0 min 199 W/m 19,3 km/h (3 Bft) 100,00 %
11.03.2021 14:36 12,9 C 14,4 C 10,6 C 67 % 997,7 hPa 0,0 l/m 0 min 0 min 203 W/m 25,7 km/h (4 Bft) 100,00 %
11.03.2021 14:38 12,9 C 13,9 C 10,6 C 68 % 997,7 hPa 0,0 l/m 0 min 0 min 160 W/m 22,5 km/h (4 Bft) 100,00 %
11.03.2021 14:40 12,9 C 13,3 C 10,0 C 67 % 997,8 hPa 0,0 l/m 0 min 0 min 111 W/m 16,1 km/h (3 Bft) 97,14 %
11.03.2021 14:42 12,9 C 12,8 C 10,0 C 67 % 997,7 hPa 0,0 l/m 0 min 0 min 139 W/m 25,7 km/h (4 Bft) 100,00 %
11.03.2021 14:44 12,9 C 12,8 C 9,5 C 68 % 997,8 hPa 0,0 l/m 0 min 2 min 96 W/m 25,7 km/h (4 Bft) 95,74 %
11.03.2021 14:46 12,9 C 12,2 C 9,5 C 68 % 997,8 hPa 0,0 l/m 0 min 2 min 70 W/m 19,3 km/h (3 Bft) 100,00 %
11.03.2021 14:48 12,8 C 12,2 C 8,9 C 69 % 997,9 hPa 0,0 l/m 0 min 2 min 42 W/m 19,3 km/h (3 Bft) 100,00 %
11.03.2021 14:50 12,6 C 11,7 C 8,9 C 71 % 998,1 hPa 0,0 l/m 0 min 2 min 34 W/m 16,1 km/h (3 Bft) 100,00 %
11.03.2021 14:52 12,4 C 11,1 C 7,8 C 72 % 998,5 hPa 0,0 l/m 0 min 2 min 53 W/m 32,2 km/h (5 Bft) 100,00 %
11.03.2021 14:54 11,9 C 10,6 C 6,7 C 74 % 998,3 hPa 0,2 l/m 0 min 2 min 131 W/m 22,5 km/h (4 Bft) 100,00 %
11.03.2021 14:56 11,5 C 10,6 C 6,7 C 76 % 998,1 hPa 0,0 l/m 0 min 2 min 143 W/m 22,5 km/h (4 Bft) 100,00 %
11.03.2021 14:58 11,4 C 11,1 C 6,7 C 77 % 998,1 hPa 0,0 l/m 0 min 2 min 149 W/m 19,3 km/h (3 Bft) 100,00 %
11.03.2021 15:00 11,3 C 11,1 C 6,7 C 78 % 998,1 hPa 0,0 l/m 0 min 0 min 177 W/m 25,7 km/h (4 Bft) 100,00 %
11.03.2021 15:02 11,1 C 11,1 C 6,7 C 78 % 998,0 hPa 0,0 l/m 0 min 0 min 156 W/m 22,5 km/h (4 Bft) 97,87 %
11.03.2021 15:04 11,1 C 11,1 C 6,7 C 79 % 998,1 hPa 0,0 l/m 0 min 0 min 110 W/m 19,3 km/h (3 Bft) 100,00 %
11.03.2021 15:06 11,1 C 11,1 C 7,3 C 79 % 998,1 hPa 0,0 l/m 0 min 0 min 120 W/m 22,5 km/h (4 Bft) 100,00 %
11.03.2021 15:08 11,0 C 11,1 C 7,3 C 79 % 998,0 hPa 0,0 l/m 0 min 0 min 127 W/m 19,3 km/h (3 Bft) 100,00 %
11.03.2021 15:10 11,1 C 11,7 C 7,8 C 79 % 998,2 hPa 0,0 l/m 0 min 0 min 141 W/m 19,3 km/h (3 Bft) 100,00 %
11.03.2021 15:12 11,2 C 11,7 C 7,8 C 78 % 998,2 hPa 0,0 l/m 0 min 0 min 115 W/m 25,7 km/h (4 Bft) 100,00 %
11.03.2021 15:14 11,3 C 11,7 C 8,4 C 77 % 998,1 hPa 0,0 l/m 0 min 0 min 116 W/m 16,1 km/h (3 Bft) 97,87 %
11.03.2021 15:16 11,4 C 12,2 C 8,4 C 77 % 998,1 hPa 0,0 l/m 0 min 0 min 119 W/m 12,9 km/h (3 Bft) 95,74 %
11.03.2021 15:18 11,5 C 11,7 C 8,4 C 77 % 998,1 hPa 0,0 l/m 0 min 0 min 127 W/m 22,5 km/h (4 Bft) 93,75 %
11.03.2021 15:20 11,5 C 11,7 C 8,9 C 75 % 998,0 hPa 0,0 l/m 0 min 0 min 93 W/m 29,0 km/h (5 Bft) 97,83 %
11.03.2021 15:22 11,7 C 11,7 C 8,9 C 74 % 998,2 hPa 0,0 l/m 0 min 0 min 114 W/m 25,7 km/h (4 Bft) 97,87 %
11.03.2021 15:24 11,8 C 11,7 C 8,4 C 73 % 998,2 hPa 0,0 l/m 0 min 2 min 98 W/m 38,6 km/h (5 Bft) 95,74 %
11.03.2021 15:26 11,8 C 12,8 C 8,4 C 73 % 998,2 hPa 0,0 l/m 0 min 2 min 151 W/m 29,0 km/h (5 Bft) 97,87 %
11.03.2021 15:28 12,0 C 13,9 C 8,4 C 73 % 998,1 hPa 0,0 l/m 2 min 2 min 364 W/m 38,6 km/h (5 Bft) 97,87 %
11.03.2021 15:30 12,1 C 13,3 C 8,4 C 73 % 998,1 hPa 0,0 l/m 2 min 2 min 402 W/m 29,0 km/h (5 Bft) 97,87 %
11.03.2021 15:32 12,2 C 14,4 C 8,4 C 71 % 998,2 hPa 0,0 l/m 2 min 2 min 222 W/m 35,4 km/h (5 Bft) 95,65 %
11.03.2021 15:34 12,3 C 15,0 C 8,4 C 71 % 998,1 hPa 0,0 l/m 2 min 2 min 436 W/m 25,7 km/h (4 Bft) 93,62 %
11.03.2021 15:36 12,5 C 14,4 C 8,9 C 69 % 997,9 hPa 0,0 l/m 0 min 0 min 198 W/m 48,3 km/h (6 Bft) 95,74 %
11.03.2021 15:38 12,6 C 15,0 C 9,5 C 68 % 998,0 hPa 0,0 l/m 2 min 0 min 373 W/m 25,7 km/h (4 Bft) 95,83 %
11.03.2021 15:40 12,6 C 13,3 C 9,5 C 68 % 998,1 hPa 0,0 l/m 2 min 0 min 230 W/m 35,4 km/h (5 Bft) 97,87 %
11.03.2021 15:42 12,6 C 12,8 C 8,9 C 67 % 998,1 hPa 0,0 l/m 0 min 0 min 46 W/m 22,5 km/h (4 Bft) 95,74 %
11.03.2021 15:44 12,5 C 12,8 C 8,9 C 67 % 998,1 hPa 0,0 l/m 0 min 0 min 49 W/m 25,7 km/h (4 Bft) 95,65 %
11.03.2021 15:46 12,5 C 12,2 C 8,9 C 66 % 997,9 hPa 0,0 l/m 0 min 0 min 55 W/m 35,4 km/h (5 Bft) 93,62 %
11.03.2021 15:48 12,5 C 12,8 C 8,9 C 66 % 998,1 hPa 0,0 l/m 0 min 0 min 75 W/m 25,7 km/h (4 Bft) 95,74 %
11.03.2021 15:50 12,5 C 13,9 C 8,9 C 66 % 998,1 hPa 0,0 l/m 0 min 0 min 81 W/m 51,5 km/h (7 Bft) 93,62 %
11.03.2021 15:52 12,5 C 13,3 C 8,9 C 66 % 998,1 hPa 0,0 l/m 2 min 0 min 343 W/m 25,7 km/h (4 Bft) 95,74 %
11.03.2021 15:54 12,5 C 12,8 C 8,9 C 66 % 998,1 hPa 0,0 l/m 0 min 0 min 100 W/m 29,0 km/h (5 Bft) 95,74 %
11.03.2021 15:56 12,4 C 12,2 C 8,9 C 66 % 998,1 hPa 0,0 l/m 0 min 0 min 53 W/m 41,8 km/h (6 Bft) 95,65 %
11.03.2021 15:58 12,4 C 11,7 C 8,9 C 65 % 998,1 hPa 0,0 l/m 0 min 0 min 46 W/m 32,2 km/h (5 Bft) 95,74 %
11.03.2021 16:00 12,3 C 11,7 C 8,9 C 65 % 998,1 hPa 0,0 l/m 0 min 0 min 49 W/m 38,6 km/h (5 Bft) 97,87 %
11.03.2021 16:02 12,3 C 11,7 C 8,9 C 66 % 998,0 hPa 0,0 l/m 0 min 0 min 53 W/m 25,7 km/h (4 Bft) 97,87 %
11.03.2021 16:04 12,3 C 11,7 C 8,9 C 66 % 998,2 hPa 0,0 l/m 0 min 2 min 48 W/m 22,5 km/h (4 Bft) 97,87 %
11.03.2021 16:06 12,2 C 11,1 C 8,4 C 68 % 998,2 hPa 0,0 l/m 0 min 2 min 44 W/m 25,7 km/h (4 Bft) 97,87 %
11.03.2021 16:08 12,0 C 11,1 C 7,3 C 69 % 998,5 hPa 0,0 l/m 0 min 2 min 80 W/m 35,4 km/h (5 Bft) 95,65 %
11.03.2021 16:10 11,9 C 11,1 C 6,7 C 71 % 998,4 hPa 0,0 l/m 2 min 2 min 180 W/m 25,7 km/h (4 Bft) 97,87 %
11.03.2021 16:12 11,7 C 10,6 C 6,7 C 73 % 998,3 hPa 0,0 l/m 2 min 2 min 172 W/m 25,7 km/h (4 Bft) 95,74 %
11.03.2021 16:14 11,5 C 10,6 C 6,1 C 72 % 998,5 hPa 0,0 l/m 0 min 2 min 92 W/m 22,5 km/h (4 Bft) 97,87 %
11.03.2021 16:16 11,5 C 10,6 C 6,1 C 72 % 998,3 hPa 0,2 l/m 0 min 0 min 53 W/m 22,5 km/h (4 Bft) 95,83 %
11.03.2021 16:18 11,4 C 10,6 C 6,1 C 72 % 998,4 hPa 0,0 l/m 0 min 0 min 45 W/m 25,7 km/h (4 Bft) 97,87 %
11.03.2021 16:20 11,4 C 10,6 C 6,7 C 72 % 998,5 hPa 0,0 l/m 0 min 0 min 38 W/m 29,0 km/h (5 Bft) 97,87 %
11.03.2021 16:22 11,4 C 10,6 C 6,7 C 73 % 998,7 hPa 0,0 l/m 0 min 2 min 32 W/m 22,5 km/h (4 Bft) 95,74 %
11.03.2021 16:24 11,3 C 10,0 C 6,1 C 75 % 998,7 hPa 0,0 l/m 0 min 2 min 37 W/m 29,0 km/h (5 Bft) 97,78 %
11.03.2021 16:26 11,0 C 10,0 C 6,1 C 76 % 998,6 hPa 0,0 l/m 0 min 2 min 54 W/m 25,7 km/h (4 Bft) 100,00 %
11.03.2021 16:28 10,8 C 10,0 C 5,6 C 77 % 998,6 hPa 0,0 l/m 0 min 2 min 73 W/m 19,3 km/h (3 Bft) 100,00 %
11.03.2021 16:30 10,5 C 9,4 C 5,0 C 78 % 998,5 hPa 0,4 l/m 0 min 2 min 110 W/m 25,7 km/h (4 Bft) 100,00 %
11.03.2021 16:32 10,4 C 9,4 C 5,0 C 79 % 998,4 hPa 0,0 l/m 0 min 2 min 95 W/m 12,9 km/h (3 Bft) 97,87 %
11.03.2021 16:34 10,4 C 9,4 C 5,0 C 79 % 998,4 hPa 0,0 l/m 0 min 0 min 102 W/m 16,1 km/h (3 Bft) 100,00 %
11.03.2021 16:36 10,4 C 10,0 C 5,0 C 79 % 998,3 hPa 0,0 l/m 0 min 0 min 101 W/m 22,5 km/h (4 Bft) 100,00 %
11.03.2021 16:38 10,4 C 10,0 C 5,0 C 79 % 998,3 hPa 0,0 l/m 0 min 0 min 101 W/m 19,3 km/h (3 Bft) 97,87 %
11.03.2021 16:40 10,5 C 10,6 C 5,0 C 78 % 998,3 hPa 0,0 l/m 0 min 0 min 106 W/m 22,5 km/h (4 Bft) 100,00 %
11.03.2021 16:42 10,6 C 10,6 C 5,0 C 77 % 998,3 hPa 0,0 l/m 0 min 0 min 97 W/m 22,5 km/h (4 Bft) 100,00 %
11.03.2021 16:44 10,8 C 10,6 C 5,0 C 76 % 998,2 hPa 0,0 l/m 0 min 0 min 112 W/m 29,0 km/h (5 Bft) 100,00 %
11.03.2021 16:46 10,9 C 11,1 C 5,0 C 76 % 998,2 hPa 0,0 l/m 0 min 0 min 127 W/m 19,3 km/h (3 Bft) 100,00 %
11.03.2021 16:48 11,0 C 11,1 C 5,6 C 75 % 998,2 hPa 0,0 l/m 0 min 0 min 112 W/m 19,3 km/h (3 Bft) 100,00 %
11.03.2021 16:50 11,0 C 11,1 C 5,6 C 74 % 998,3 hPa 0,0 l/m 2 min 0 min 164 W/m 22,5 km/h (4 Bft) 100,00 %
11.03.2021 16:52 11,2 C 11,1 C 5,6 C 72 % 998,3 hPa 0,0 l/m 2 min 0 min 147 W/m 22,5 km/h (4 Bft) 100,00 %
11.03.2021 16:54 11,3 C 11,1 C 5,6 C 70 % 998,2 hPa 0,0 l/m 2 min 0 min 202 W/m 25,7 km/h (4 Bft) 100,00 %
11.03.2021 16:56 11,5 C 11,7 C 6,1 C 70 % 998,4 hPa 0,0 l/m 2 min 0 min 229 W/m 29,0 km/h (5 Bft) 100,00 %
11.03.2021 16:58 11,5 C 11,1 C 6,1 C 70 % 998,1 hPa 0,0 l/m 2 min 0 min 140 W/m 35,4 km/h (5 Bft) 100,00 %
11.03.2021 17:00 11,6 C 11,1 C 6,1 C 68 % 998,2 hPa 0,0 l/m 0 min 0 min 93 W/m 35,4 km/h (5 Bft) 100,00 %
11.03.2021 17:02 11,6 C 11,1 C 6,1 C 67 % 998,3 hPa 0,0 l/m 2 min 0 min 125 W/m 35,4 km/h (5 Bft) 97,92 %
11.03.2021 17:04 11,6 C 11,1 C 6,1 C 67 % 998,3 hPa 0,0 l/m 0 min 0 min 92 W/m 41,8 km/h (6 Bft) 97,87 %
11.03.2021 17:06 11,7 C 11,1 C 6,1 C 67 % 998,4 hPa 0,0 l/m 2 min 0 min 114 W/m 29,0 km/h (5 Bft) 97,83 %
11.03.2021 17:08 11,6 C 11,1 C 6,1 C 67 % 998,3 hPa 0,0 l/m 2 min 0 min 134 W/m 35,4 km/h (5 Bft) 97,87 %
11.03.2021 17:10 11,6 C 11,1 C 6,7 C 66 % 998,3 hPa 0,0 l/m 0 min 0 min 89 W/m 32,2 km/h (5 Bft) 95,74 %
11.03.2021 17:12 11,6 C 11,1 C 6,7 C 66 % 998,3 hPa 0,0 l/m 0 min 0 min 52 W/m 29,0 km/h (5 Bft) 97,87 %
11.03.2021 17:14 11,6 C 11,1 C 7,3 C 67 % 998,3 hPa 0,0 l/m 0 min 0 min 50 W/m 29,0 km/h (5 Bft) 97,87 %
11.03.2021 17:16 11,6 C 11,1 C 7,3 C 67 % 998,4 hPa 0,0 l/m 0 min 0 min 61 W/m 22,5 km/h (4 Bft) 97,87 %
11.03.2021 17:18 11,6 C 11,1 C 7,8 C 67 % 998,3 hPa 0,0 l/m 0 min 0 min 72 W/m 35,4 km/h (5 Bft) 97,87 %
11.03.2021 17:20 11,6 C 11,1 C 7,8 C 67 % 998,1 hPa 0,0 l/m 0 min 0 min 77 W/m 45,1 km/h (6 Bft) 97,87 %
11.03.2021 17:22 11,6 C 11,1 C 7,8 C 67 % 998,4 hPa 0,0 l/m 0 min 0 min 63 W/m 32,2 km/h (5 Bft) 97,87 %
11.03.2021 17:24 11,6 C 11,1 C 7,8 C 68 % 998,4 hPa 0,0 l/m 0 min 0 min 67 W/m 25,7 km/h (4 Bft) 97,83 %
11.03.2021 17:26 11,6 C 11,1 C 7,8 C 67 % 998,5 hPa 0,0 l/m 0 min 0 min 49 W/m 22,5 km/h (4 Bft) 97,87 %
11.03.2021 17:28 11,6 C 11,1 C 7,8 C 67 % 998,5 hPa 0,0 l/m 0 min 0 min 47 W/m 29,0 km/h (5 Bft) 97,87 %
11.03.2021 17:30 11,5 C 11,1 C 7,8 C 67 % 998,5 hPa 0,0 l/m 0 min 0 min 46 W/m 29,0 km/h (5 Bft) 97,87 %
11.03.2021 17:32 11,5 C 11,1 C 7,8 C 67 % 998,4 hPa 0,0 l/m 0 min 0 min 47 W/m 25,7 km/h (4 Bft) 97,87 %
11.03.2021 17:34 11,5 C 11,1 C 7,8 C 68 % 998,5 hPa 0,0 l/m 0 min 0 min 43 W/m 22,5 km/h (4 Bft) 97,87 %
11.03.2021 17:36 11,5 C 11,1 C 7,8 C 67 % 998,4 hPa 0,0 l/m 0 min 0 min 37 W/m 25,7 km/h (4 Bft) 97,83 %
11.03.2021 17:38 11,5 C 10,6 C 7,8 C 67 % 998,4 hPa 0,0 l/m 0 min 0 min 31 W/m 25,7 km/h (4 Bft) 97,87 %
11.03.2021 17:40 11,4 C 10,6 C 7,8 C 67 % 998,4 hPa 0,0 l/m 0 min 0 min 28 W/m 22,5 km/h (4 Bft) 97,87 %
11.03.2021 17:42 11,4 C 10,6 C 7,3 C 67 % 998,4 hPa 0,0 l/m 0 min 0 min 22 W/m 22,5 km/h (4 Bft) 97,87 %
11.03.2021 17:44 11,3 C 10,6 C 7,8 C 67 % 998,4 hPa 0,0 l/m 0 min 0 min 21 W/m 45,1 km/h (6 Bft) 95,45 %
11.03.2021 17:46 11,3 C 10,6 C 7,8 C 67 % 998,5 hPa 0,0 l/m 0 min 0 min 27 W/m 41,8 km/h (6 Bft) 97,87 %
11.03.2021 17:48 11,3 C 10,6 C 7,3 C 67 % 998,4 hPa 0,0 l/m 0 min 0 min 29 W/m 22,5 km/h (4 Bft) 97,87 %
11.03.2021 17:50 11,3 C 10,6 C 7,3 C 68 % 998,6 hPa 0,0 l/m 0 min 0 min 28 W/m 19,3 km/h (3 Bft) 97,87 %
11.03.2021 17:52 11,2 C 10,6 C 7,3 C 68 % 998,6 hPa 0,0 l/m 0 min 0 min 31 W/m 16,1 km/h (3 Bft) 97,87 %
11.03.2021 17:54 11,1 C 10,6 C 7,3 C 68 % 998,6 hPa 0,0 l/m 0 min 0 min 33 W/m 41,8 km/h (6 Bft) 97,83 %
11.03.2021 17:56 11,1 C 10,6 C 7,3 C 67 % 998,6 hPa 0,0 l/m 0 min 0 min 39 W/m 35,4 km/h (5 Bft) 97,87 %
11.03.2021 17:58 11,1 C 10,6 C 7,3 C 67 % 998,7 hPa 0,0 l/m 2 min 0 min 41 W/m 25,7 km/h (4 Bft) 93,75 %
11.03.2021 18:00 11,1 C 10,6 C 7,3 C 68 % 998,7 hPa 0,0 l/m 2 min 0 min 43 W/m 22,5 km/h (4 Bft) 93,62 %
11.03.2021 18:02 11,0 C 10,6 C 7,3 C 67 % 998,8 hPa 0,0 l/m 2 min 0 min 48 W/m 19,3 km/h (3 Bft) 55,56 %
11.03.2021 18:04 11,1 C 10,6 C 7,8 C 67 % 998,8 hPa 0,0 l/m 2 min 0 min 52 W/m 22,5 km/h (4 Bft) 95,65 %
11.03.2021 18:08 11,0 C 10,6 C 7,3 C 67 % 998,8 hPa 0,0 l/m 4 min 0 min 35 W/m 25,7 km/h (4 Bft) 98,95 %
11.03.2021 18:10 11,0 C 10,6 C 7,3 C 67 % 998,8 hPa 0,0 l/m 2 min 0 min 23 W/m 19,3 km/h (3 Bft) 97,87 %
11.03.2021 18:12 11,0 C 10,0 C 7,3 C 67 % 998,8 hPa 0,0 l/m 0 min 0 min 18 W/m 19,3 km/h (3 Bft) 97,87 %
11.03.2021 18:14 11,0 C 10,0 C 7,3 C 67 % 998,7 hPa 0,0 l/m 0 min 0 min 16 W/m 38,6 km/h (5 Bft) 95,74 %
11.03.2021 18:16 10,9 C 10,0 C 7,3 C 67 % 998,8 hPa 0,0 l/m 0 min 0 min 14 W/m 22,5 km/h (4 Bft) 95,65 %
11.03.2021 18:18 10,9 C 10,0 C 7,3 C 67 % 999,0 hPa 0,0 l/m 0 min 0 min 14 W/m 19,3 km/h (3 Bft) 95,74 %
11.03.2021 18:20 10,9 C 10,0 C 7,3 C 68 % 999,0 hPa 0,0 l/m 0 min 0 min 14 W/m 25,7 km/h (4 Bft) 93,62 %
11.03.2021 18:22 10,8 C 10,0 C 7,3 C 68 % 999,0 hPa 0,0 l/m 0 min 0 min 12 W/m 19,3 km/h (3 Bft) 93,62 %
11.03.2021 18:24 10,8 C 10,0 C 7,3 C 68 % 999,1 hPa 0,0 l/m 0 min 0 min 10 W/m 22,5 km/h (4 Bft) 93,62 %
11.03.2021 18:26 10,8 C 10,0 C 7,3 C 68 % 999,1 hPa 0,0 l/m 0 min 0 min 7 W/m 25,7 km/h (4 Bft) 93,33 %
11.03.2021 18:28 10,8 C 10,0 C 7,3 C 68 % 999,1 hPa 0,0 l/m 0 min 0 min 6 W/m 19,3 km/h (3 Bft) 95,65 %
11.03.2021 18:30 10,8 C 10,0 C 7,3 C 68 % 999,3 hPa 0,0 l/m 0 min 0 min 5 W/m 16,1 km/h (3 Bft) 97,87 %
11.03.2021 18:32 10,6 C 10,0 C 6,7 C 68 % 999,2 hPa 0,0 l/m 0 min 0 min 2 W/m 16,1 km/h (3 Bft) 95,74 %
11.03.2021 18:34 10,6 C 10,0 C 6,7 C 69 % 999,2 hPa 0,0 l/m 0 min 0 min 0 W/m 19,3 km/h (3 Bft) 95,74 %
11.03.2021 18:36 10,6 C 10,0 C 6,7 C 69 % 999,2 hPa 0,0 l/m 0 min 0 min 0 W/m 19,3 km/h (3 Bft) 95,74 %
11.03.2021 18:38 10,5 C 9,4 C 6,7 C 69 % 999,2 hPa 0,0 l/m 0 min 0 min 0 W/m 19,3 km/h (3 Bft) 95,74 %
11.03.2021 18:40 10,5 C 9,4 C 6,7 C 69 % 999,3 hPa 0,0 l/m 0 min 0 min 0 W/m 22,5 km/h (4 Bft) 95,65 %
11.03.2021 18:42 10,5 C 9,4 C 6,7 C 69 % 999,3 hPa 0,0 l/m 0 min 0 min 0 W/m 35,4 km/h (5 Bft) 95,74 %
11.03.2021 18:44 10,5 C 9,4 C 6,7 C 68 % 999,3 hPa 0,0 l/m 0 min 0 min 0 W/m 25,7 km/h (4 Bft) 93,62 %
11.03.2021 18:46 10,5 C 10,0 C 6,7 C 68 % 999,5 hPa 0,0 l/m 0 min 0 min 0 W/m 41,8 km/h (6 Bft) 95,74 %
11.03.2021 18:48 10,5 C 10,0 C 6,7 C 68 % 999,5 hPa 0,0 l/m 0 min 0 min 0 W/m 16,1 km/h (3 Bft) 93,62 %
11.03.2021 18:50 10,5 C 10,0 C 6,7 C 68 % 999,4 hPa 0,0 l/m 0 min 0 min 0 W/m 22,5 km/h (4 Bft) 95,74 %
11.03.2021 18:52 10,5 C 10,0 C 6,7 C 68 % 999,5 hPa 0,0 l/m 0 min 0 min 0 W/m 32,2 km/h (5 Bft) 95,65 %
11.03.2021 18:54 10,5 C 10,0 C 7,3 C 68 % 999,5 hPa 0,0 l/m 0 min 0 min 0 W/m 29,0 km/h (5 Bft) 93,62 %
11.03.2021 18:56 10,5 C 10,0 C 6,7 C 68 % 999,5 hPa 0,0 l/m 0 min 0 min 0 W/m 19,3 km/h (3 Bft) 97,87 %
11.03.2021 18:58 10,5 C 10,0 C 6,7 C 68 % 999,4 hPa 0,0 l/m 0 min 0 min 0 W/m 29,0 km/h (5 Bft) 97,87 %
11.03.2021 19:00 10,5 C 10,0 C 6,7 C 68 % 999,5 hPa 0,0 l/m 0 min 0 min 0 W/m 19,3 km/h (3 Bft) 100,00 %
11.03.2021 19:02 10,5 C 10,0 C 6,7 C 68 % 999,5 hPa 0,0 l/m 0 min 0 min 0 W/m 16,1 km/h (3 Bft) 97,96 %
11.03.2021 19:04 10,5 C 9,4 C 6,7 C 69 % 999,7 hPa 0,0 l/m 0 min 0 min 0 W/m 16,1 km/h (3 Bft) 100,00 %
11.03.2021 19:06 10,4 C 9,4 C 6,7 C 69 % 999,7 hPa 0,0 l/m 0 min 0 min 0 W/m 25,7 km/h (4 Bft) 100,00 %
11.03.2021 19:08 10,5 C 9,4 C 6,7 C 69 % 999,7 hPa 0,0 l/m 0 min 0 min 0 W/m 25,7 km/h (4 Bft) 100,00 %
11.03.2021 19:10 10,4 C 9,4 C 6,7 C 69 % 999,8 hPa 0,0 l/m 0 min 0 min 0 W/m 25,7 km/h (4 Bft) 100,00 %
11.03.2021 19:12 10,4 C 9,4 C 6,7 C 69 % 999,8 hPa 0,0 l/m 0 min 0 min 0 W/m 19,3 km/h (3 Bft) 100,00 %
11.03.2021 19:14 10,4 C 9,4 C 6,7 C 69 % 999,8 hPa 0,0 l/m 0 min 0 min 0 W/m 22,5 km/h (4 Bft) 100,00 %
11.03.2021 19:16 10,4 C 9,4 C 6,7 C 69 % 999,8 hPa 0,0 l/m 0 min 0 min 0 W/m 19,3 km/h (3 Bft) 97,83 %
11.03.2021 19:18 10,4 C 9,4 C 6,7 C 69 % 999,9 hPa 0,0 l/m 0 min 0 min 0 W/m 19,3 km/h (3 Bft) 100,00 %
11.03.2021 19:20 10,4 C 9,4 C 6,7 C 70 % 999,9 hPa 0,0 l/m 0 min 0 min 0 W/m 16,1 km/h (3 Bft) 95,74 %
11.03.2021 19:22 10,4 C 9,4 C 6,7 C 70 % 999,9 hPa 0,0 l/m 0 min 0 min 0 W/m 19,3 km/h (3 Bft) 100,00 %
11.03.2021 19:24 10,4 C 9,4 C 6,7 C 70 % 1000,0 hPa 0,0 l/m 0 min 0 min 0 W/m 12,9 km/h (3 Bft) 100,00 %
11.03.2021 19:26 10,3 C 9,4 C 6,7 C 70 % 999,9 hPa 0,0 l/m 0 min 0 min 0 W/m 12,9 km/h (3 Bft) 100,00 %
11.03.2021 19:28 10,3 C 9,4 C 6,7 C 70 % 999,9 hPa 0,0 l/m 0 min 0 min 0 W/m 19,3 km/h (3 Bft) 97,83 %
11.03.2021 19:30 10,3 C 9,4 C 6,7 C 70 % 1000,0 hPa 0,0 l/m 0 min 2 min 0 W/m 16,1 km/h (3 Bft) 100,00 %
11.03.2021 19:32 10,3 C 9,4 C 6,7 C 71 % 999,9 hPa 0,0 l/m 0 min 0 min 0 W/m 22,5 km/h (4 Bft) 100,00 %
11.03.2021 19:34 10,3 C 9,4 C 6,7 C 71 % 1000,0 hPa 0,0 l/m 0 min 0 min 0 W/m 22,5 km/h (4 Bft) 100,00 %
11.03.2021 19:36 10,3 C 9,4 C 6,7 C 71 % 1000,0 hPa 0,0 l/m 0 min 0 min 0 W/m 19,3 km/h (3 Bft) 100,00 %
11.03.2021 19:38 10,3 C 9,4 C 6,7 C 71 % 1000,0 hPa 0,0 l/m 0 min 0 min 0 W/m 25,7 km/h (4 Bft) 100,00 %
11.03.2021 19:40 10,2 C 9,4 C 6,7 C 71 % 1000,0 hPa 0,0 l/m 0 min 0 min 0 W/m 19,3 km/h (3 Bft) 100,00 %
11.03.2021 19:42 10,2 C 9,4 C 6,7 C 70 % 1000,0 hPa 0,0 l/m 0 min 0 min 0 W/m 29,0 km/h (5 Bft) 100,00 %
11.03.2021 19:44 10,2 C 9,4 C 6,7 C 71 % 1000,0 hPa 0,0 l/m 0 min 0 min 0 W/m 32,2 km/h (5 Bft) 100,00 %
11.03.2021 19:46 10,1 C 9,4 C 6,7 C 71 % 1000,0 hPa 0,0 l/m 0 min 0 min 0 W/m 16,1 km/h (3 Bft) 100,00 %
11.03.2021 19:48 10,1 C 9,4 C 6,7 C 71 % 1000,1 hPa 0,0 l/m 0 min 0 min 0 W/m 19,3 km/h (3 Bft) 100,00 %
11.03.2021 19:50 10,1 C 9,4 C 6,7 C 70 % 1000,0 hPa 0,0 l/m 0 min 0 min 0 W/m 48,3 km/h (6 Bft) 97,87 %
11.03.2021 19:52 10,1 C 9,4 C 6,7 C 71 % 1000,1 hPa 0,0 l/m 0 min 0 min 0 W/m 19,3 km/h (3 Bft) 97,83 %
11.03.2021 19:54 10,1 C 9,4 C 6,7 C 71 % 1000,1 hPa 0,0 l/m 0 min 0 min 0 W/m 19,3 km/h (3 Bft) 100,00 %
11.03.2021 19:56 10,1 C 9,4 C 6,7 C 71 % 1000,2 hPa 0,0 l/m 0 min 0 min 0 W/m 22,5 km/h (4 Bft) 100,00 %
11.03.2021 19:58 10,0 C 9,4 C 6,7 C 72 % 1000,2 hPa 0,0 l/m 0 min 0 min 0 W/m 25,7 km/h (4 Bft) 100,00 %
11.03.2021 20:00 10,0 C 9,4 C 6,1 C 72 % 1000,3 hPa 0,0 l/m 0 min 0 min 0 W/m 45,1 km/h (6 Bft) 100,00 %
11.03.2021 20:02 9,9 C 8,9 C 6,1 C 72 % 1000,3 hPa 0,0 l/m 0 min 0 min 0 W/m 38,6 km/h (5 Bft) 97,87 %
11.03.2021 20:04 9,9 C 8,9 C 6,1 C 72 % 1000,3 hPa 0,0 l/m 0 min 0 min 0 W/m 29,0 km/h (5 Bft) 100,00 %
11.03.2021 20:06 9,8 C 8,9 C 6,1 C 72 % 1000,3 hPa 0,0 l/m 0 min 0 min 0 W/m 22,5 km/h (4 Bft) 100,00 %
11.03.2021 20:08 9,7 C 8,9 C 6,1 C 73 % 1000,4 hPa 0,0 l/m 0 min 0 min 0 W/m 22,5 km/h (4 Bft) 100,00 %
11.03.2021 20:10 9,6 C 8,3 C 6,1 C 73 % 1000,4 hPa 0,0 l/m 0 min 0 min 0 W/m 19,3 km/h (3 Bft) 100,00 %
11.03.2021 20:12 9,5 C 8,3 C 6,1 C 73 % 1000,4 hPa 0,0 l/m 0 min 0 min 0 W/m 22,5 km/h (4 Bft) 100,00 %
11.03.2021 20:14 9,5 C 8,3 C 6,1 C 74 % 1000,5 hPa 0,0 l/m 0 min 0 min 0 W/m 22,5 km/h (4 Bft) 100,00 %
11.03.2021 20:16 9,4 C 8,3 C 5,6 C 74 % 1000,5 hPa 0,0 l/m 0 min 0 min 0 W/m 29,0 km/h (5 Bft) 100,00 %
11.03.2021 20:18 9,4 C 8,3 C 5,6 C 74 % 1000,5 hPa 0,0 l/m 0 min 0 min 0 W/m 25,7 km/h (4 Bft) 100,00 %
11.03.2021 20:20 9,3 C 8,3 C 5,6 C 74 % 1000,5 hPa 0,0 l/m 0 min 0 min 0 W/m 22,5 km/h (4 Bft) 100,00 %
11.03.2021 20:22 9,3 C 8,3 C 5,6 C 74 % 1000,5 hPa 0,0 l/m 0 min 0 min 0 W/m 29,0 km/h (5 Bft) 95,65 %
11.03.2021 20:24 9,3 C 8,3 C 5,6 C 75 % 1000,7 hPa 0,0 l/m 0 min 0 min 0 W/m 22,5 km/h (4 Bft) 100,00 %
11.03.2021 20:26 9,2 C 8,3 C 5,6 C 75 % 1000,7 hPa 0,0 l/m 0 min 0 min 0 W/m 19,3 km/h (3 Bft) 97,87 %
11.03.2021 20:28 9,1 C 8,3 C 5,6 C 75 % 1000,7 hPa 0,0 l/m 0 min 0 min 0 W/m 29,0 km/h (5 Bft) 100,00 %
11.03.2021 20:30 9,1 C 8,3 C 5,6 C 75 % 1000,8 hPa 0,0 l/m 0 min 0 min 0 W/m 22,5 km/h (4 Bft) 100,00 %
11.03.2021 20:32 9,1 C 8,3 C 5,6 C 75 % 1000,8 hPa 0,0 l/m 0 min 0 min 0 W/m 22,5 km/h (4 Bft) 97,92 %
11.03.2021 20:34 9,1 C 8,3 C 5,6 C 75 % 1000,7 hPa 0,0 l/m 0 min 0 min 0 W/m 35,4 km/h (5 Bft) 100,00 %
11.03.2021 20:36 9,1 C 8,3 C 5,6 C 75 % 1000,8 hPa 0,0 l/m 0 min 0 min 0 W/m 16,1 km/h (3 Bft) 100,00 %
11.03.2021 20:38 9,1 C 8,3 C 5,6 C 75 % 1000,7 hPa 0,0 l/m 0 min 0 min 0 W/m 12,9 km/h (3 Bft) 100,00 %
11.03.2021 20:40 9,1 C 8,3 C 5,6 C 75 % 1000,8 hPa 0,0 l/m 0 min 0 min 0 W/m 35,4 km/h (5 Bft) 97,87 %
11.03.2021 20:42 9,1 C 8,3 C 5,6 C 75 % 1000,8 hPa 0,0 l/m 0 min 0 min 0 W/m 22,5 km/h (4 Bft) 100,00 %
11.03.2021 20:44 9,1 C 8,3 C 5,6 C 75 % 1000,8 hPa 0,0 l/m 0 min 0 min 0 W/m 22,5 km/h (4 Bft) 100,00 %
11.03.2021 20:46 9,1 C 8,3 C 5,6 C 75 % 1000,7 hPa 0,0 l/m 0 min 0 min 0 W/m 19,3 km/h (3 Bft) 97,87 %
11.03.2021 20:48 9,0 C 8,3 C 5,6 C 75 % 1000,9 hPa 0,0 l/m 0 min 0 min 0 W/m 32,2 km/h (5 Bft) 97,87 %
11.03.2021 20:50 9,0 C 8,3 C 5,6 C 75 % 1000,9 hPa 0,0 l/m 0 min 0 min 0 W/m 29,0 km/h (5 Bft) 97,83 %
11.03.2021 20:52 9,0 C 8,3 C 5,6 C 75 % 1000,9 hPa 0,0 l/m 0 min 0 min 0 W/m 16,1 km/h (3 Bft) 95,74 %
11.03.2021 20:54 9,0 C 8,3 C 5,6 C 75 % 1000,9 hPa 0,0 l/m 0 min 0 min 0 W/m 32,2 km/h (5 Bft) 97,87 %
11.03.2021 20:56 9,0 C 8,3 C 5,6 C 75 % 1001,0 hPa 0,0 l/m 0 min 0 min 0 W/m 29,0 km/h (5 Bft) 95,74 %
11.03.2021 20:58 9,0 C 8,3 C 5,6 C 75 % 1000,9 hPa 0,0 l/m 0 min 0 min 0 W/m 25,7 km/h (4 Bft) 95,74 %
11.03.2021 21:00 9,0 C 8,3 C 5,6 C 74 % 1000,9 hPa 0,0 l/m 0 min 0 min 0 W/m 32,2 km/h (5 Bft) 95,74 %
11.03.2021 21:02 9,0 C 8,3 C 5,6 C 75 % 1000,8 hPa 0,0 l/m 0 min 0 min 0 W/m 25,7 km/h (4 Bft) 93,48 %
11.03.2021 21:04 9,0 C 8,3 C 5,6 C 74 % 1000,8 hPa 0,0 l/m 0 min 0 min 0 W/m 22,5 km/h (4 Bft) 93,62 %
11.03.2021 21:06 8,9 C 8,3 C 5,6 C 75 % 1000,8 hPa 0,0 l/m 0 min 0 min 0 W/m 19,3 km/h (3 Bft) 93,62 %
11.03.2021 21:08 8,9 C 8,3 C 5,6 C 75 % 1000,9 hPa 0,0 l/m 0 min 0 min 0 W/m 38,6 km/h (5 Bft) 91,49 %
11.03.2021 21:10 8,9 C 7,8 C 5,6 C 75 % 1000,9 hPa 0,0 l/m 0 min 0 min 0 W/m 41,8 km/h (6 Bft) 91,49 %
11.03.2021 21:12 8,8 C 7,8 C 5,6 C 75 % 1000,9 hPa 0,0 l/m 0 min 0 min 0 W/m 25,7 km/h (4 Bft) 93,62 %
11.03.2021 21:14 8,7 C 7,8 C 5,0 C 75 % 1001,0 hPa 0,0 l/m 0 min 0 min 0 W/m 25,7 km/h (4 Bft) 93,48 %
11.03.2021 21:16 8,6 C 7,8 C 5,0 C 76 % 1001,0 hPa 0,0 l/m 0 min 0 min 0 W/m 22,5 km/h (4 Bft) 95,74 %
11.03.2021 21:18 8,6 C 7,8 C 5,0 C 76 % 1001,0 hPa 0,0 l/m 0 min 0 min 0 W/m 25,7 km/h (4 Bft) 93,62 %
11.03.2021 21:20 8,5 C 7,8 C 5,0 C 77 % 1001,0 hPa 0,0 l/m 0 min 0 min 0 W/m 19,3 km/h (3 Bft) 91,49 %
11.03.2021 21:22 8,5 C 7,8 C 5,0 C 77 % 1001,1 hPa 0,0 l/m 0 min 0 min 0 W/m 16,1 km/h (3 Bft) 93,62 %
11.03.2021 21:24 8,4 C 7,8 C 5,0 C 77 % 1001,1 hPa 0,0 l/m 0 min 0 min 0 W/m 25,7 km/h (4 Bft) 93,62 %
11.03.2021 21:26 8,4 C 7,2 C 5,0 C 78 % 1001,2 hPa 0,0 l/m 0 min 0 min 0 W/m 19,3 km/h (3 Bft) 91,30 %
11.03.2021 21:28 8,3 C 7,2 C 5,0 C 78 % 1001,3 hPa 0,0 l/m 0 min 0 min 0 W/m 16,1 km/h (3 Bft) 93,62 %
11.03.2021 21:30 8,3 C 7,8 C 5,0 C 78 % 1001,2 hPa 0,0 l/m 0 min 0 min 0 W/m 29,0 km/h (5 Bft) 93,62 %
11.03.2021 21:32 8,3 C 7,8 C 5,0 C 78 % 1001,2 hPa 0,0 l/m 0 min 0 min 0 W/m 25,7 km/h (4 Bft) 95,74 %
11.03.2021 21:34 8,3 C 7,8 C 5,0 C 78 % 1001,3 hPa 0,0 l/m 0 min 0 min 0 W/m 16,1 km/h (3 Bft) 97,87 %
11.03.2021 21:36 8,3 C 7,8 C 5,0 C 78 % 1001,2 hPa 0,0 l/m 0 min 0 min 0 W/m 29,0 km/h (5 Bft) 91,49 %
11.03.2021 21:38 8,4 C 7,8 C 5,0 C 77 % 1001,2 hPa 0,0 l/m 0 min 0 min 0 W/m 25,7 km/h (4 Bft) 95,74 %
11.03.2021 21:40 8,4 C 7,8 C 5,0 C 77 % 1001,2 hPa 0,0 l/m 0 min 0 min 0 W/m 51,5 km/h (7 Bft) 95,74 %
11.03.2021 21:42 8,4 C 7,8 C 5,0 C 77 % 1001,2 hPa 0,0 l/m 0 min 0 min 0 W/m 29,0 km/h (5 Bft) 97,87 %
11.03.2021 21:44 8,4 C 7,8 C 5,0 C 77 % 1001,3 hPa 0,0 l/m 0 min 0 min 0 W/m 25,7 km/h (4 Bft) 95,65 %
11.03.2021 21:46 8,4 C 7,8 C 5,0 C 77 % 1001,3 hPa 0,0 l/m 0 min 0 min 0 W/m 25,7 km/h (4 Bft) 95,74 %
11.03.2021 21:48 8,4 C 7,8 C 5,0 C 76 % 1001,2 hPa 0,0 l/m 0 min 0 min 0 W/m 29,0 km/h (5 Bft) 95,74 %
11.03.2021 21:50 8,4 C 7,8 C 5,0 C 76 % 1001,2 hPa 0,0 l/m 0 min 0 min 0 W/m 29,0 km/h (5 Bft) 95,74 %
11.03.2021 21:52 8,4 C 7,8 C 5,0 C 76 % 1001,3 hPa 0,0 l/m 0 min 0 min 0 W/m 41,8 km/h (6 Bft) 95,74 %
11.03.2021 21:54 8,4 C 7,8 C 5,0 C 76 % 1001,3 hPa 0,0 l/m 0 min 0 min 0 W/m 25,7 km/h (4 Bft) 97,87 %
11.03.2021 21:56 8,5 C 7,8 C 5,0 C 76 % 1001,2 hPa 0,0 l/m 0 min 0 min 0 W/m 35,4 km/h (5 Bft) 95,65 %
11.03.2021 21:58 8,5 C 7,8 C 5,0 C 76 % 1001,3 hPa 0,0 l/m 0 min 0 min 0 W/m 25,7 km/h (4 Bft) 97,87 %
11.03.2021 22:00 8,5 C 7,8 C 5,0 C 76 % 1001,2 hPa 0,0 l/m 0 min 0 min 0 W/m 45,1 km/h (6 Bft) 97,87 %
11.03.2021 22:02 8,5 C 7,8 C 5,0 C 76 % 1001,3 hPa 0,0 l/m 0 min 0 min 0 W/m 32,2 km/h (5 Bft) 95,74 %
11.03.2021 22:04 8,6 C 7,8 C 5,6 C 75 % 1001,3 hPa 0,0 l/m 0 min 0 min 0 W/m 25,7 km/h (4 Bft) 100,00 %
11.03.2021 22:06 8,6 C 7,8 C 5,0 C 75 % 1001,2 hPa 0,0 l/m 0 min 0 min 0 W/m 38,6 km/h (5 Bft) 100,00 %
11.03.2021 22:08 8,6 C 7,8 C 5,0 C 75 % 1001,2 hPa 0,0 l/m 0 min 0 min 0 W/m 22,5 km/h (4 Bft) 97,83 %
11.03.2021 22:10 8,6 C 7,8 C 5,0 C 75 % 1001,3 hPa 0,0 l/m 0 min 0 min 0 W/m 16,1 km/h (3 Bft) 100,00 %
11.03.2021 22:12 8,5 C 7,8 C 5,0 C 75 % 1001,4 hPa 0,0 l/m 0 min 0 min 0 W/m 29,0 km/h (5 Bft) 100,00 %
11.03.2021 22:14 8,5 C 7,8 C 5,0 C 75 % 1001,5 hPa 0,0 l/m 0 min 0 min 0 W/m 29,0 km/h (5 Bft) 100,00 %
11.03.2021 22:16 8,5 C 7,8 C 5,0 C 75 % 1001,4 hPa 0,0 l/m 0 min 0 min 0 W/m 19,3 km/h (3 Bft) 100,00 %
11.03.2021 22:18 8,5 C 7,8 C 5,0 C 75 % 1001,5 hPa 0,0 l/m 0 min 0 min 0 W/m 25,7 km/h (4 Bft) 100,00 %
11.03.2021 22:20 8,5 C 7,8 C 5,0 C 75 % 1001,5 hPa 0,0 l/m 0 min 0 min 0 W/m 22,5 km/h (4 Bft) 100,00 %
11.03.2021 22:22 8,5 C 7,8 C 5,0 C 76 % 1001,6 hPa 0,0 l/m 0 min 0 min 0 W/m 19,3 km/h (3 Bft) 100,00 %
11.03.2021 22:24 8,4 C 7,8 C 5,0 C 76 % 1001,7 hPa 0,0 l/m 0 min 0 min 0 W/m 25,7 km/h (4 Bft) 100,00 %
11.03.2021 22:26 8,4 C 7,8 C 5,0 C 76 % 1001,7 hPa 0,0 l/m 0 min 0 min 0 W/m 29,0 km/h (5 Bft) 100,00 %
11.03.2021 22:28 8,4 C 7,8 C 5,0 C 76 % 1001,7 hPa 0,0 l/m 0 min 0 min 0 W/m 22,5 km/h (4 Bft) 100,00 %
11.03.2021 22:30 8,4 C 7,8 C 5,0 C 76 % 1001,9 hPa 0,0 l/m 0 min 0 min 0 W/m 32,2 km/h (5 Bft) 97,87 %
11.03.2021 22:32 8,4 C 7,8 C 5,0 C 76 % 1001,8 hPa 0,0 l/m 0 min 0 min 0 W/m 41,8 km/h (6 Bft) 100,00 %
11.03.2021 22:34 8,4 C 7,8 C 5,0 C 76 % 1001,8 hPa 0,0 l/m 0 min 0 min 0 W/m 19,3 km/h (3 Bft) 100,00 %
11.03.2021 22:36 8,4 C 7,8 C 5,0 C 76 % 1001,8 hPa 0,0 l/m 0 min 0 min 0 W/m 12,9 km/h (3 Bft) 100,00 %
11.03.2021 22:38 8,4 C 7,8 C 5,0 C 76 % 1001,9 hPa 0,0 l/m 0 min 0 min 0 W/m 25,7 km/h (4 Bft) 97,87 %
11.03.2021 22:40 8,4 C 7,8 C 5,0 C 76 % 1002,0 hPa 0,0 l/m 0 min 0 min 0 W/m 35,4 km/h (5 Bft) 100,00 %
11.03.2021 22:42 8,4 C 7,8 C 5,0 C 76 % 1002,0 hPa 0,0 l/m 0 min 0 min 0 W/m 22,5 km/h (4 Bft) 97,87 %
11.03.2021 22:44 8,4 C 7,8 C 5,0 C 76 % 1001,9 hPa 0,0 l/m 0 min 0 min 0 W/m 32,2 km/h (5 Bft) 100,00 %
11.03.2021 22:46 8,4 C 7,8 C 5,0 C 76 % 1001,9 hPa 0,0 l/m 0 min 0 min 0 W/m 22,5 km/h (4 Bft) 100,00 %
11.03.2021 22:48 8,4 C 7,8 C 5,0 C 76 % 1002,0 hPa 0,0 l/m 0 min 0 min 0 W/m 16,1 km/h (3 Bft) 100,00 %
11.03.2021 22:50 8,4 C 7,8 C 5,0 C 76 % 1002,0 hPa 0,0 l/m 0 min 0 min 0 W/m 19,3 km/h (3 Bft) 100,00 %
11.03.2021 22:52 8,3 C 7,8 C 5,0 C 76 % 1002,0 hPa 0,0 l/m 0 min 0 min 0 W/m 32,2 km/h (5 Bft) 100,00 %
11.03.2021 22:54 8,3 C 7,8 C 5,0 C 77 % 1001,9 hPa 0,0 l/m 0 min 0 min 0 W/m 22,5 km/h (4 Bft) 97,14 %
11.03.2021 22:56 8,3 C 7,8 C 5,0 C 77 % 1002,0 hPa 0,0 l/m 0 min 0 min 0 W/m 22,5 km/h (4 Bft) 100,00 %
11.03.2021 22:58 8,3 C 7,8 C 5,0 C 77 % 1002,1 hPa 0,0 l/m 0 min 0 min 0 W/m 25,7 km/h (4 Bft) 100,00 %
11.03.2021 23:00 8,3 C 7,2 C 5,0 C 77 % 1002,0 hPa 0,0 l/m 0 min 0 min 0 W/m 19,3 km/h (3 Bft) 100,00 %
11.03.2021 23:02 8,3 C 7,2 C 5,0 C 77 % 1002,1 hPa 0,0 l/m 0 min 0 min 0 W/m 12,9 km/h (3 Bft) 97,87 %
11.03.2021 23:04 8,2 C 7,2 C 5,0 C 77 % 1002,1 hPa 0,0 l/m 0 min 0 min 0 W/m 22,5 km/h (4 Bft) 100,00 %
11.03.2021 23:06 8,2 C 7,2 C 5,0 C 77 % 1002,3 hPa 0,0 l/m 0 min 0 min 0 W/m 25,7 km/h (4 Bft) 100,00 %
11.03.2021 23:08 8,2 C 7,2 C 5,0 C 78 % 1002,3 hPa 0,0 l/m 0 min 0 min 0 W/m 19,3 km/h (3 Bft) 97,87 %
11.03.2021 23:10 8,1 C 7,2 C 5,0 C 78 % 1002,3 hPa 0,0 l/m 0 min 0 min 0 W/m 25,7 km/h (4 Bft) 100,00 %
11.03.2021 23:12 8,0 C 7,2 C 4,5 C 79 % 1002,3 hPa 0,0 l/m 0 min 0 min 0 W/m 29,0 km/h (5 Bft) 100,00 %
11.03.2021 23:14 8,0 C 7,2 C 4,5 C 79 % 1002,3 hPa 0,0 l/m 0 min 0 min 0 W/m 45,1 km/h (6 Bft) 98,31 %
11.03.2021 23:16 7,9 C 7,2 C 4,5 C 80 % 1002,3 hPa 0,0 l/m 0 min 0 min 0 W/m 35,4 km/h (5 Bft) 100,00 %
11.03.2021 23:18 7,9 C 7,2 C 4,5 C 80 % 1002,4 hPa 0,0 l/m 0 min 0 min 0 W/m 19,3 km/h (3 Bft) 98,28 %
11.03.2021 23:20 7,8 C 6,7 C 4,5 C 81 % 1002,4 hPa 0,0 l/m 0 min 0 min 0 W/m 22,5 km/h (4 Bft) 100,00 %
11.03.2021 23:22 7,7 C 6,7 C 4,5 C 81 % 1002,6 hPa 0,0 l/m 0 min 0 min 0 W/m 35,4 km/h (5 Bft) 100,00 %
11.03.2021 23:24 7,6 C 6,7 C 4,5 C 81 % 1002,5 hPa 0,0 l/m 0 min 0 min 0 W/m 22,5 km/h (4 Bft) 97,83 %
11.03.2021 23:26 7,6 C 6,7 C 4,5 C 81 % 1002,5 hPa 0,0 l/m 0 min 0 min 0 W/m 25,7 km/h (4 Bft) 95,74 %
11.03.2021 23:28 7,6 C 6,7 C 4,5 C 81 % 1002,4 hPa 0,0 l/m 0 min 0 min 0 W/m 19,3 km/h (3 Bft) 97,87 %
11.03.2021 23:30 7,5 C 6,7 C 4,5 C 81 % 1002,5 hPa 0,0 l/m 0 min 0 min 0 W/m 29,0 km/h (5 Bft) 97,87 %
11.03.2021 23:32 7,5 C 6,7 C 4,5 C 81 % 1002,5 hPa 0,0 l/m 0 min 0 min 0 W/m 19,3 km/h (3 Bft) 97,87 %
11.03.2021 23:34 7,5 C 6,7 C 4,5 C 80 % 1002,5 hPa 0,0 l/m 0 min 0 min 0 W/m 25,7 km/h (4 Bft) 97,87 %
11.03.2021 23:36 7,5 C 6,7 C 4,5 C 81 % 1002,6 hPa 0,0 l/m 0 min 0 min 0 W/m 22,5 km/h (4 Bft) 97,83 %
11.03.2021 23:38 7,5 C 6,7 C 4,5 C 80 % 1002,7 hPa 0,0 l/m 0 min 0 min 0 W/m 22,5 km/h (4 Bft) 97,87 %
11.03.2021 23:40 7,5 C 6,7 C 4,5 C 80 % 1002,6 hPa 0,0 l/m 0 min 0 min 0 W/m 16,1 km/h (3 Bft) 97,87 %
11.03.2021 23:42 7,5 C 6,7 C 4,5 C 80 % 1002,8 hPa 0,0 l/m 0 min 0 min 0 W/m 29,0 km/h (5 Bft) 95,74 %
11.03.2021 23:44 7,5 C 6,7 C 4,5 C 80 % 1002,7 hPa 0,0 l/m 0 min 0 min 0 W/m 29,0 km/h (5 Bft) 95,74 %
11.03.2021 23:46 7,5 C 6,7 C 4,5 C 80 % 1002,7 hPa 0,0 l/m 0 min 0 min 0 W/m 19,3 km/h (3 Bft) 97,87 %
11.03.2021 23:48 7,5 C 6,7 C 4,5 C 80 % 1002,8 hPa 0,0 l/m 0 min 0 min 0 W/m 22,5 km/h (4 Bft) 97,83 %
11.03.2021 23:50 7,5 C 6,7 C 4,5 C 79 % 1003,0 hPa 0,0 l/m 0 min 0 min 0 W/m 22,5 km/h (4 Bft) 97,87 %
11.03.2021 23:52 7,5 C 6,7 C 4,5 C 79 % 1003,0 hPa 0,0 l/m 0 min 0 min 0 W/m 25,7 km/h (4 Bft) 97,87 %
11.03.2021 23:54 7,5 C 6,7 C 4,5 C 79 % 1003,0 hPa 0,0 l/m 0 min 0 min 0 W/m 19,3 km/h (3 Bft) 95,74 %
11.03.2021 23:56 7,5 C 6,7 C 4,5 C 79 % 1003,0 hPa 0,0 l/m 0 min 0 min 0 W/m 19,3 km/h (3 Bft) 97,87 %
11.03.2021 23:58 7,5 C 6,7 C 4,5 C 79 % 1003,0 hPa 0,0 l/m 0 min 0 min 0 W/m 45,1 km/h (6 Bft) 95,74 %
_ Min-Zeit 00:10 00:00 00:00 14:16 11:08 - - - - 01:04 00:16
Minimum _ 6,4 C 5,6 C 3,9 C 62 % 996,5 hPa - - - - 6,4 km/h (2 Bft) 44,44 %
_ Max-Zeit 14:16 14:12 11:16 00:18 00:00 16:30 18:08 06:10 11:34 09:54 01:32
Maximum _ 14,2 C 18,9 C 16,7 C 93 % 1006,7 hPa 0,4 l/m 4 min 2 min 725 W/m 67,6 km/h
S-SW (8 Bft)
100,00 %
Durchschnitt _ 9,9 C 9,7 C 7,1 C 79 % 999,9 hPa #1,4 l/m #3:02 h #3:30 h 183 W/m 29,0 km/h (5 Bft) 97,44 %
© 2021 W. Hausmann